Wetterdaten: Sonntag, 11.07.2010
Datum Zeit Temp. Innen Temp. Aussen UV X Diff Temp. Feuchte Inne Feuchte Auss Sonnenschein Luftdruck Regen ab 0,1 Wind Sonnenschein Windben
11.07.2010 00:00 29,1 C 24,7 C 0,0 UV-I 0,0 C 54 % 74 % 0 % 1018,6 hPa 0,0 l/m 11,6 km/h (2 Bft) 0 min 23,2 km/h (4 Bft)
11.07.2010 00:02 29,1 C 24,6 C 0,0 UV-I 0,0 C 54 % 73 % 0 % 1018,6 hPa 0,0 l/m 10,4 km/h (2 Bft) 0 min 7,4 km/h (2 Bft)
11.07.2010 00:04 29,1 C 24,6 C 0,0 UV-I 0,0 C 54 % 73 % 0 % 1018,6 hPa 0,0 l/m 9,6 km/h (2 Bft) 0 min 3,5 km/h (1 Bft)
11.07.2010 00:06 29,0 C 24,3 C 0,0 UV-I 0,0 C 54 % 74 % 0 % 1018,6 hPa 0,0 l/m 9,6 km/h (2 Bft) 0 min 3,5 km/h (1 Bft)
11.07.2010 00:08 29,0 C 24,3 C 0,0 UV-I 0,0 C 54 % 74 % 0 % 1018,6 hPa 0,0 l/m 7,6 km/h (2 Bft) 0 min 10,0 km/h (2 Bft)
11.07.2010 00:10 29,0 C 24,0 C 0,0 UV-I 0,0 C 55 % 75 % 0 % 1018,9 hPa 0,0 l/m 6,8 km/h (2 Bft) 0 min 10,3 km/h (2 Bft)
11.07.2010 00:12 29,0 C 23,9 C 0,0 UV-I 0,0 C 55 % 76 % 0 % 1018,9 hPa 0,0 l/m 7,6 km/h (2 Bft) 0 min 9,0 km/h (2 Bft)
11.07.2010 00:14 29,0 C 23,9 C 0,0 UV-I 0,0 C 55 % 76 % 0 % 1018,9 hPa 0,0 l/m 8,0 km/h (2 Bft) 0 min 7,7 km/h (2 Bft)
11.07.2010 00:16 28,9 C 23,7 C 0,0 UV-I 0,0 C 55 % 76 % 0 % 1018,9 hPa 0,0 l/m 8,0 km/h (2 Bft) 0 min 4,2 km/h (1 Bft)
11.07.2010 00:18 28,9 C 23,7 C 0,0 UV-I 0,0 C 55 % 77 % 0 % 1018,9 hPa 0,0 l/m 9,2 km/h (2 Bft) 0 min 10,0 km/h (2 Bft)
11.07.2010 00:20 28,8 C 23,5 C 0,0 UV-I 0,0 C 55 % 77 % 0 % 1018,9 hPa 0,0 l/m 9,6 km/h (2 Bft) 0 min 19,3 km/h (3 Bft)
11.07.2010 00:22 28,9 C 23,5 C 0,0 UV-I 0,0 C 55 % 77 % 0 % 1018,9 hPa 0,0 l/m 10,0 km/h (2 Bft) 0 min 15,8 km/h (3 Bft)
11.07.2010 00:24 28,8 C 23,3 C 0,0 UV-I 0,0 C 55 % 77 % 0 % 1018,9 hPa 0,0 l/m 10,0 km/h (2 Bft) 0 min 9,3 km/h (2 Bft)
11.07.2010 00:26 28,8 C 23,2 C 0,0 UV-I 0,0 C 55 % 77 % 0 % 1018,9 hPa 0,0 l/m 10,8 km/h (2 Bft) 0 min 24,5 km/h (4 Bft)
11.07.2010 00:28 28,8 C 23,2 C 0,0 UV-I 0,0 C 55 % 77 % 0 % 1018,9 hPa 0,0 l/m 10,8 km/h (2 Bft) 0 min 24,5 km/h (4 Bft)
11.07.2010 00:30 28,8 C 23,0 C 0,0 UV-I 0,0 C 55 % 78 % 0 % 1019,8 hPa 0,0 l/m 11,6 km/h (2 Bft) 0 min 27,4 km/h (4 Bft)
11.07.2010 00:32 28,7 C 23,0 C 0,0 UV-I 0,0 C 55 % 78 % 0 % 1019,8 hPa 0,0 l/m 11,2 km/h (2 Bft) 0 min 8,7 km/h (2 Bft)
11.07.2010 00:34 28,7 C 23,0 C 0,0 UV-I 0,0 C 55 % 78 % 0 % 1019,8 hPa 0,0 l/m 11,2 km/h (2 Bft) 0 min 7,7 km/h (2 Bft)
11.07.2010 00:36 28,7 C 22,9 C 0,0 UV-I 0,0 C 55 % 78 % 0 % 1019,8 hPa 0,0 l/m 11,2 km/h (2 Bft) 0 min 7,1 km/h (2 Bft)
11.07.2010 00:38 28,6 C 22,8 C 0,0 UV-I 0,0 C 55 % 78 % 0 % 1019,8 hPa 0,0 l/m 11,2 km/h (2 Bft) 0 min 11,9 km/h (2 Bft)
11.07.2010 00:40 28,6 C 22,8 C 0,0 UV-I 0,0 C 56 % 78 % 0 % 1019,8 hPa 0,0 l/m 10,8 km/h (2 Bft) 0 min 12,2 km/h (2 Bft)
11.07.2010 00:42 28,6 C 22,8 C 0,0 UV-I 0,0 C 55 % 78 % 0 % 1019,8 hPa 0,0 l/m 9,2 km/h (2 Bft) 0 min 10,9 km/h (2 Bft)
11.07.2010 00:44 28,6 C 22,7 C 0,0 UV-I 0,0 C 56 % 78 % 0 % 1019,8 hPa 0,0 l/m 8,8 km/h (2 Bft) 0 min 9,0 km/h (2 Bft)
11.07.2010 00:46 28,5 C 22,7 C 0,0 UV-I 0,0 C 56 % 78 % 0 % 1019,8 hPa 0,0 l/m 9,6 km/h (2 Bft) 0 min 5,8 km/h (2 Bft)
11.07.2010 00:48 28,5 C 22,7 C 0,0 UV-I 0,0 C 56 % 78 % 0 % 1019,8 hPa 0,0 l/m 8,8 km/h (2 Bft) 0 min 13,5 km/h (3 Bft)
11.07.2010 00:50 28,5 C 22,7 C 0,0 UV-I 0,0 C 56 % 78 % 0 % 1019,4 hPa 0,0 l/m 8,8 km/h (2 Bft) 0 min 13,5 km/h (3 Bft)
11.07.2010 00:52 28,5 C 22,6 C 0,0 UV-I 0,0 C 56 % 78 % 0 % 1019,4 hPa 0,0 l/m 8,4 km/h (2 Bft) 0 min 4,8 km/h (1 Bft)
11.07.2010 00:54 28,5 C 22,6 C 0,0 UV-I 0,0 C 56 % 78 % 0 % 1019,4 hPa 0,0 l/m 8,0 km/h (2 Bft) 0 min 8,4 km/h (2 Bft)
11.07.2010 00:56 28,4 C 22,5 C 0,0 UV-I 0,0 C 56 % 78 % 0 % 1019,4 hPa 0,0 l/m 6,4 km/h (2 Bft) 0 min 9,3 km/h (2 Bft)
11.07.2010 00:58 28,4 C 22,5 C 0,0 UV-I 0,0 C 56 % 78 % 0 % 1019,4 hPa 0,0 l/m 5,2 km/h (1 Bft) 0 min 6,1 km/h (2 Bft)
11.07.2010 01:00 28,4 C 22,5 C 0,0 UV-I 0,0 C 56 % 78 % 0 % 1019,4 hPa 0,0 l/m 5,2 km/h (1 Bft) 0 min 6,1 km/h (2 Bft)
11.07.2010 01:04 28,4 C 22,5 C 0,0 UV-I 0,0 C 56 % 79 % 0 % 1019,4 hPa 0,0 l/m 3,6 km/h (1 Bft) 0 min 4,2 km/h (1 Bft)
11.07.2010 01:06 28,4 C 22,5 C 0,0 UV-I 0,0 C 56 % 78 % 0 % 1019,4 hPa 0,0 l/m 4,4 km/h (1 Bft) 0 min 8,7 km/h (2 Bft)
11.07.2010 01:08 28,4 C 22,5 C 0,0 UV-I 0,0 C 56 % 78 % 0 % 1019,4 hPa 0,0 l/m 4,0 km/h (1 Bft) 0 min 0,0 km/h (0 Bft)
11.07.2010 01:10 28,2 C 22,5 C 0,0 UV-I 0,0 C 56 % 79 % 0 % 1020,8 hPa 0,0 l/m 4,8 km/h (1 Bft) 0 min 5,8 km/h (2 Bft)
11.07.2010 01:12 28,3 C 22,5 C 0,0 UV-I 0,0 C 56 % 79 % 0 % 1020,8 hPa 0,0 l/m 5,2 km/h (1 Bft) 0 min 8,7 km/h (2 Bft)
11.07.2010 01:14 28,3 C 22,5 C 0,0 UV-I 0,0 C 56 % 78 % 0 % 1020,8 hPa 0,0 l/m 6,0 km/h (2 Bft) 0 min 8,0 km/h (2 Bft)
11.07.2010 01:16 28,3 C 22,4 C 0,0 UV-I 0,0 C 56 % 78 % 0 % 1020,8 hPa 0,0 l/m 5,6 km/h (1 Bft) 0 min 7,4 km/h (2 Bft)
11.07.2010 01:20 28,3 C 22,4 C 0,0 UV-I 0,0 C 56 % 78 % 0 % 1020,8 hPa 0,0 l/m 5,6 km/h (1 Bft) 0 min 5,5 km/h (1 Bft)
11.07.2010 01:22 28,2 C 22,5 C 0,0 UV-I 0,0 C 56 % 78 % 0 % 1020,8 hPa 0,0 l/m 4,8 km/h (1 Bft) 0 min 4,2 km/h (1 Bft)
11.07.2010 01:26 28,2 C 22,5 C 0,0 UV-I 0,0 C 56 % 79 % 0 % 1020,8 hPa 0,0 l/m 5,2 km/h (1 Bft) 0 min 11,3 km/h (2 Bft)
11.07.2010 01:28 28,2 C 22,5 C 0,0 UV-I 0,0 C 56 % 79 % 0 % 1020,8 hPa 0,0 l/m 5,2 km/h (1 Bft) 0 min 9,0 km/h (2 Bft)
11.07.2010 01:30 28,2 C 22,4 C 0,0 UV-I 0,0 C 56 % 79 % 0 % 1021,1 hPa 0,0 l/m 4,8 km/h (1 Bft) 0 min 3,9 km/h (1 Bft)
11.07.2010 01:34 28,2 C 22,4 C 0,0 UV-I 0,0 C 56 % 80 % 0 % 1021,1 hPa 1,0 l/m 4,8 km/h (1 Bft) 0 min 10,6 km/h (2 Bft)
11.07.2010 01:38 28,1 C 22,2 C 0,0 UV-I 0,0 C 56 % 81 % 0 % 1021,1 hPa 0,0 l/m 4,0 km/h (1 Bft) 0 min 10,6 km/h (2 Bft)
11.07.2010 01:40 28,1 C 22,1 C 0,0 UV-I 0,0 C 56 % 81 % 0 % 1021,1 hPa 0,3 l/m 3,2 km/h (1 Bft) 0 min 6,8 km/h (2 Bft)
11.07.2010 01:42 28,1 C 22,0 C 0,0 UV-I 0,0 C 57 % 82 % 0 % 1021,1 hPa 0,0 l/m 3,2 km/h (1 Bft) 0 min 0,0 km/h (0 Bft)
11.07.2010 01:44 28,1 C 22,0 C 0,0 UV-I 0,0 C 57 % 82 % 0 % 1021,1 hPa 0,0 l/m 3,2 km/h (1 Bft) 0 min 0,0 km/h (0 Bft)
11.07.2010 01:46 28,1 C 21,8 C 0,0 UV-I 0,0 C 57 % 82 % 0 % 1021,1 hPa 0,2 l/m 4,0 km/h (1 Bft) 0 min 16,4 km/h (3 Bft)
11.07.2010 01:48 28,1 C 21,8 C 0,0 UV-I 0,0 C 57 % 82 % 0 % 1021,1 hPa 0,1 l/m 5,2 km/h (1 Bft) 0 min 7,4 km/h (2 Bft)
11.07.2010 01:50 28,0 C 21,7 C 0,0 UV-I 0,0 C 57 % 83 % 0 % 1020,5 hPa 0,1 l/m 5,6 km/h (1 Bft) 0 min 7,4 km/h (2 Bft)
11.07.2010 01:52 28,0 C 21,7 C 0,0 UV-I 0,0 C 57 % 83 % 0 % 1020,5 hPa 0,0 l/m 5,6 km/h (1 Bft) 0 min 5,8 km/h (2 Bft)
11.07.2010 01:56 28,0 C 21,4 C 0,0 UV-I 0,0 C 57 % 84 % 0 % 1020,5 hPa 0,5 l/m 6,0 km/h (2 Bft) 0 min 6,4 km/h (2 Bft)
11.07.2010 01:58 28,0 C 21,5 C 0,0 UV-I 0,0 C 57 % 85 % 0 % 1020,5 hPa 0,2 l/m 4,4 km/h (1 Bft) 0 min 0,0 km/h (0 Bft)
11.07.2010 02:00 28,0 C 21,3 C 0,0 UV-I 0,0 C 57 % 85 % 0 % 1020,5 hPa 0,0 l/m 3,6 km/h (1 Bft) 0 min 3,9 km/h (1 Bft)
11.07.2010 02:02 28,0 C 21,2 C 0,0 UV-I 0,0 C 57 % 85 % 0 % 1020,5 hPa 0,2 l/m 2,8 km/h (1 Bft) 0 min 6,1 km/h (2 Bft)
11.07.2010 02:04 28,0 C 21,2 C 0,0 UV-I 0,0 C 57 % 86 % 0 % 1020,5 hPa 0,4 l/m 2,8 km/h (1 Bft) 0 min 0,0 km/h (0 Bft)
11.07.2010 02:06 28,0 C 21,2 C 0,0 UV-I 0,0 C 57 % 87 % 0 % 1020,5 hPa 0,0 l/m 1,6 km/h (1 Bft) 0 min 0,0 km/h (0 Bft)
11.07.2010 02:10 28,0 C 21,2 C 0,0 UV-I 0,0 C 57 % 87 % 0 % 1020,1 hPa 0,4 l/m 0,8 km/h (0 Bft) 0 min 0,0 km/h (0 Bft)
11.07.2010 02:12 28,0 C 21,2 C 0,0 UV-I 0,0 C 57 % 87 % 0 % 1020,1 hPa 0,3 l/m 0,4 km/h (0 Bft) 0 min 5,5 km/h (1 Bft)
11.07.2010 02:14 28,0 C 21,3 C 0,0 UV-I 0,0 C 57 % 87 % 0 % 1020,1 hPa 0,0 l/m 0,4 km/h (0 Bft) 0 min 5,5 km/h (1 Bft)
11.07.2010 02:16 28,0 C 21,2 C 0,0 UV-I 0,0 C 57 % 88 % 0 % 1020,1 hPa 0,1 l/m 0,4 km/h (0 Bft) 0 min 0,0 km/h (0 Bft)
11.07.2010 02:18 28,0 C 21,2 C 0,0 UV-I 0,0 C 57 % 88 % 0 % 1020,1 hPa 0,0 l/m 0,8 km/h (0 Bft) 0 min 0,0 km/h (0 Bft)
11.07.2010 02:20 28,0 C 21,2 C 0,0 UV-I 0,0 C 57 % 88 % 0 % 1020,1 hPa 0,2 l/m 1,2 km/h (1 Bft) 0 min 0,0 km/h (0 Bft)
11.07.2010 02:26 28,0 C 21,0 C 0,0 UV-I 0,0 C 58 % 88 % 0 % 1020,1 hPa 0,3 l/m 4,0 km/h (1 Bft) 0 min 12,2 km/h (2 Bft)
11.07.2010 02:28 28,0 C 21,0 C 0,0 UV-I 0,0 C 58 % 88 % 0 % 1020,1 hPa 0,1 l/m 6,0 km/h (2 Bft) 0 min 10,6 km/h (2 Bft)
11.07.2010 02:30 27,9 C 21,2 C 0,0 UV-I 0,0 C 58 % 89 % 0 % 1020,1 hPa 0,0 l/m 6,0 km/h (2 Bft) 0 min 10,0 km/h (2 Bft)
11.07.2010 02:32 27,9 C 21,2 C 0,0 UV-I 0,0 C 58 % 88 % 0 % 1020,1 hPa 0,0 l/m 6,0 km/h (2 Bft) 0 min 0,0 km/h (0 Bft)
11.07.2010 02:34 27,9 C 21,3 C 0,0 UV-I 0,0 C 59 % 88 % 0 % 1020,1 hPa 0,2 l/m 5,2 km/h (1 Bft) 0 min 0,0 km/h (0 Bft)
11.07.2010 02:38 27,9 C 21,3 C 0,0 UV-I 0,0 C 59 % 88 % 0 % 1020,1 hPa 0,0 l/m 2,8 km/h (1 Bft) 0 min 3,2 km/h (1 Bft)
11.07.2010 02:40 27,8 C 21,3 C 0,0 UV-I 0,0 C 59 % 88 % 0 % 1020,1 hPa 0,1 l/m 0,8 km/h (0 Bft) 0 min 0,0 km/h (0 Bft)
11.07.2010 02:42 27,8 C 21,3 C 0,0 UV-I 0,0 C 60 % 89 % 0 % 1020,1 hPa 0,1 l/m 0,8 km/h (0 Bft) 0 min 0,0 km/h (0 Bft)
11.07.2010 02:48 27,8 C 21,2 C 0,0 UV-I 0,0 C 60 % 89 % 0 % 1020,1 hPa 0,1 l/m 0,4 km/h (0 Bft) 0 min 3,2 km/h (1 Bft)
11.07.2010 02:54 27,8 C 21,1 C 0,0 UV-I 0,0 C 60 % 89 % 0 % 1020,2 hPa 0,0 l/m 0,0 km/h (0 Bft) 0 min 0,0 km/h (0 Bft)
11.07.2010 03:00 27,7 C 21,1 C 0,0 UV-I 0,0 C 60 % 90 % 0 % 1020,2 hPa 0,1 l/m 0,0 km/h (0 Bft) 0 min 0,0 km/h (0 Bft)
11.07.2010 03:02 27,7 C 21,1 C 0,0 UV-I 0,0 C 60 % 90 % 0 % 1020,2 hPa 0,0 l/m 0,0 km/h (0 Bft) 0 min 0,0 km/h (0 Bft)
11.07.2010 03:04 27,7 C 21,1 C 0,0 UV-I 0,0 C 60 % 90 % 0 % 1020,2 hPa 0,0 l/m 0,0 km/h (0 Bft) 0 min 0,0 km/h (0 Bft)
11.07.2010 03:06 27,7 C 21,1 C 0,0 UV-I 0,0 C 60 % 90 % 0 % 1020,2 hPa 0,0 l/m 0,0 km/h (0 Bft) 0 min 0,0 km/h (0 Bft)
11.07.2010 03:08 27,7 C 21,1 C 0,0 UV-I 0,0 C 60 % 90 % 0 % 1020,2 hPa 0,0 l/m 0,0 km/h (0 Bft) 0 min 0,0 km/h (0 Bft)
11.07.2010 03:16 27,7 C 21,1 C 0,0 UV-I 0,0 C 60 % 90 % 0 % 1020,2 hPa 0,0 l/m 1,2 km/h (1 Bft) 0 min 7,1 km/h (2 Bft)
11.07.2010 03:22 27,6 C 21,0 C 0,0 UV-I 0,0 C 60 % 90 % 0 % 1020,2 hPa 0,0 l/m 2,0 km/h (1 Bft) 0 min 5,5 km/h (1 Bft)
11.07.2010 03:26 27,6 C 21,1 C 0,0 UV-I 0,0 C 61 % 90 % 0 % 1020,2 hPa 0,0 l/m 1,6 km/h (1 Bft) 0 min 5,5 km/h (1 Bft)
11.07.2010 03:30 27,6 C 21,0 C 0,0 UV-I 0,0 C 61 % 90 % 0 % 1020,0 hPa 0,0 l/m 1,6 km/h (1 Bft) 0 min 0,0 km/h (0 Bft)
11.07.2010 03:32 27,6 C 21,0 C 0,0 UV-I 0,0 C 61 % 90 % 0 % 1020,0 hPa 0,0 l/m 0,8 km/h (0 Bft) 0 min 0,0 km/h (0 Bft)
11.07.2010 03:38 27,6 C 20,9 C 0,0 UV-I 0,0 C 61 % 90 % 0 % 1020,0 hPa 0,0 l/m 0,8 km/h (0 Bft) 0 min 0,0 km/h (0 Bft)
11.07.2010 03:40 27,6 C 20,9 C 0,0 UV-I 0,0 C 61 % 90 % 0 % 1020,0 hPa 0,0 l/m 0,8 km/h (0 Bft) 0 min 0,0 km/h (0 Bft)
11.07.2010 03:43 27,6 C 20,9 C 0,0 UV-I 0,0 C 61 % 90 % 0 % 1020,0 hPa 0,0 l/m 1,2 km/h (1 Bft) 0 min 0,0 km/h (0 Bft)
11.07.2010 03:48 27,6 C 20,9 C 0,0 UV-I 0,0 C 61 % 91 % 0 % 1020,1 hPa 0,0 l/m 0,8 km/h (0 Bft) 0 min 0,0 km/h (0 Bft)
11.07.2010 03:53 27,6 C 20,9 C 0,0 UV-I 0,0 C 61 % 91 % 0 % 1020,1 hPa 0,0 l/m 0,0 km/h (0 Bft) 0 min 0,0 km/h (0 Bft)
11.07.2010 03:58 27,5 C 20,9 C 0,0 UV-I 0,0 C 62 % 91 % 0 % 1020,1 hPa 0,0 l/m 0,8 km/h (0 Bft) 0 min 0,0 km/h (0 Bft)
11.07.2010 04:03 27,5 C 20,9 C 0,0 UV-I 0,0 C 62 % 91 % 0 % 1020,1 hPa 0,0 l/m 2,8 km/h (1 Bft) 0 min 9,7 km/h (2 Bft)
11.07.2010 04:08 27,5 C 20,9 C 0,0 UV-I 0,0 C 62 % 91 % 0 % 1020,6 hPa 0,0 l/m 4,8 km/h (1 Bft) 0 min 7,7 km/h (2 Bft)
11.07.2010 04:13 27,4 C 20,8 C 0,0 UV-I 0,0 C 62 % 92 % 0 % 1020,6 hPa 0,0 l/m 5,6 km/h (1 Bft) 0 min 0,0 km/h (0 Bft)
11.07.2010 04:18 27,4 C 20,8 C 0,0 UV-I 0,0 C 62 % 92 % 0 % 1020,6 hPa 0,0 l/m 5,2 km/h (1 Bft) 0 min 3,2 km/h (1 Bft)
11.07.2010 04:23 27,4 C 20,8 C 0,0 UV-I 0,0 C 62 % 91 % 0 % 1020,6 hPa 0,0 l/m 4,8 km/h (1 Bft) 0 min 4,5 km/h (1 Bft)
11.07.2010 04:28 27,4 C 20,9 C 0,0 UV-I 0,0 C 62 % 91 % 0 % 1020,4 hPa 0,0 l/m 4,0 km/h (1 Bft) 0 min 4,5 km/h (1 Bft)
11.07.2010 04:33 27,2 C 20,9 C 0,0 UV-I 0,0 C 62 % 91 % 0 % 1020,4 hPa 0,0 l/m 3,2 km/h (1 Bft) 0 min 0,0 km/h (0 Bft)
11.07.2010 04:38 27,2 C 20,9 C 0,0 UV-I 0,0 C 62 % 92 % 0 % 1020,4 hPa 0,0 l/m 2,8 km/h (1 Bft) 0 min 3,9 km/h (1 Bft)
11.07.2010 04:43 27,2 C 20,9 C 0,0 UV-I 0,0 C 62 % 92 % 0 % 1020,4 hPa 0,0 l/m 3,6 km/h (1 Bft) 0 min 6,4 km/h (2 Bft)
11.07.2010 04:48 27,2 C 20,8 C 0,0 UV-I 0,0 C 62 % 92 % 0 % 1020,1 hPa 0,0 l/m 5,2 km/h (1 Bft) 0 min 3,9 km/h (1 Bft)
11.07.2010 04:53 27,3 C 20,9 C 0,0 UV-I 0,0 C 62 % 92 % 0 % 1020,1 hPa 0,0 l/m 4,4 km/h (1 Bft) 0 min 0,0 km/h (0 Bft)
11.07.2010 04:58 27,3 C 20,8 C 0,0 UV-I 0,0 C 62 % 92 % 0 % 1020,1 hPa 0,0 l/m 2,4 km/h (1 Bft) 0 min 0,0 km/h (0 Bft)
11.07.2010 05:03 27,2 C 20,8 C 0,0 UV-I 0,0 C 62 % 92 % 0 % 1020,1 hPa 0,0 l/m 0,8 km/h (0 Bft) 0 min 0,0 km/h (0 Bft)
11.07.2010 05:08 27,3 C 20,7 C 0,0 UV-I 0,0 C 62 % 92 % 0 % 1019,9 hPa 0,0 l/m 0,4 km/h (0 Bft) 0 min 3,2 km/h (1 Bft)
11.07.2010 05:13 27,2 C 20,7 C 0,0 UV-I 0,0 C 62 % 92 % 0 % 1019,9 hPa 0,0 l/m 0,4 km/h (0 Bft) 0 min 0,0 km/h (0 Bft)
11.07.2010 05:18 27,2 C 20,7 C 0,0 UV-I 0,0 C 62 % 92 % 0 % 1019,9 hPa 0,0 l/m 0,4 km/h (0 Bft) 0 min 0,0 km/h (0 Bft)
11.07.2010 05:23 27,2 C 20,7 C 0,0 UV-I 0,0 C 62 % 92 % 0 % 1019,9 hPa 0,0 l/m 0,4 km/h (0 Bft) 0 min 0,0 km/h (0 Bft)
11.07.2010 05:28 27,2 C 20,7 C 0,0 UV-I 0,0 C 62 % 92 % 0 % 1019,2 hPa 0,0 l/m 0,4 km/h (0 Bft) 0 min 0,0 km/h (0 Bft)
11.07.2010 05:33 27,2 C 20,7 C 0,0 UV-I 0,0 C 62 % 92 % 0 % 1019,2 hPa 0,0 l/m 0,0 km/h (0 Bft) 0 min 0,0 km/h (0 Bft)
11.07.2010 05:38 27,2 C 20,7 C 0,0 UV-I 0,0 C 62 % 92 % 0 % 1019,2 hPa 0,0 l/m 0,0 km/h (0 Bft) 0 min 0,0 km/h (0 Bft)
11.07.2010 05:43 27,2 C 20,7 C 0,0 UV-I 0,0 C 62 % 92 % 0 % 1019,2 hPa 0,0 l/m 0,0 km/h (0 Bft) 0 min 0,0 km/h (0 Bft)
11.07.2010 05:48 27,2 C 20,7 C 0,0 UV-I 0,0 C 62 % 92 % 0 % 1018,8 hPa 0,0 l/m 0,0 km/h (0 Bft) 0 min 0,0 km/h (0 Bft)
11.07.2010 05:53 27,2 C 20,5 C 0,0 UV-I 0,0 C 62 % 92 % 0 % 1018,8 hPa 0,0 l/m 0,0 km/h (0 Bft) 0 min 0,0 km/h (0 Bft)
11.07.2010 05:58 27,2 C 20,6 C 0,0 UV-I 0,0 C 62 % 92 % 0 % 1018,8 hPa 0,0 l/m 0,4 km/h (0 Bft) 0 min 3,5 km/h (1 Bft)
11.07.2010 06:03 27,2 C 20,5 C 0,0 UV-I 0,0 C 62 % 92 % 0 % 1018,8 hPa 0,0 l/m 0,8 km/h (0 Bft) 0 min 0,0 km/h (0 Bft)
11.07.2010 06:08 27,2 C 20,6 C 0,0 UV-I 0,0 C 62 % 92 % 0 % 1017,9 hPa 0,0 l/m 1,2 km/h (1 Bft) 0 min 0,0 km/h (0 Bft)
11.07.2010 06:13 27,2 C 20,6 C 0,0 UV-I 0,0 C 62 % 93 % 0 % 1017,9 hPa 0,0 l/m 0,8 km/h (0 Bft) 0 min 3,2 km/h (1 Bft)
11.07.2010 06:18 27,2 C 20,5 C 0,0 UV-I 0,0 C 62 % 92 % 0 % 1017,9 hPa 0,0 l/m 2,0 km/h (1 Bft) 0 min 5,8 km/h (2 Bft)
11.07.2010 06:23 27,2 C 20,5 C 0,0 UV-I 0,0 C 62 % 92 % 0 % 1017,9 hPa 0,0 l/m 2,0 km/h (1 Bft) 0 min 4,8 km/h (1 Bft)
11.07.2010 06:28 27,2 C 20,5 C 0,0 UV-I 0,0 C 62 % 92 % 0 % 1017,9 hPa 0,0 l/m 2,8 km/h (1 Bft) 0 min 4,8 km/h (1 Bft)
11.07.2010 06:33 27,2 C 20,5 C 0,0 UV-I 0,0 C 62 % 92 % 0 % 1017,9 hPa 0,0 l/m 2,8 km/h (1 Bft) 0 min 0,0 km/h (0 Bft)
11.07.2010 06:38 27,2 C 20,6 C 0,0 UV-I 0,0 C 62 % 93 % 0 % 1017,9 hPa 0,0 l/m 1,6 km/h (1 Bft) 0 min 0,0 km/h (0 Bft)
11.07.2010 06:43 27,2 C 20,6 C 0,1 UV-I 0,0 C 62 % 93 % 0 % 1017,9 hPa 0,0 l/m 0,4 km/h (0 Bft) 0 min 0,0 km/h (0 Bft)
11.07.2010 06:48 27,2 C 20,7 C 0,0 UV-I 0,0 C 62 % 93 % 0 % 1018,2 hPa 0,0 l/m 0,4 km/h (0 Bft) 0 min 4,2 km/h (1 Bft)
11.07.2010 06:54 27,2 C 20,8 C 0,0 UV-I 0,0 C 62 % 93 % 0 % 1018,2 hPa 0,0 l/m 0,4 km/h (0 Bft) 0 min 0,0 km/h (0 Bft)
11.07.2010 06:56 27,2 C 20,8 C 0,2 UV-I 0,0 C 62 % 93 % 0 % 1018,2 hPa 0,0 l/m 0,4 km/h (0 Bft) 0 min 0,0 km/h (0 Bft)
11.07.2010 06:58 27,1 C 20,8 C 0,2 UV-I 0,0 C 62 % 93 % 0 % 1018,2 hPa 0,0 l/m 0,4 km/h (0 Bft) 0 min 0,0 km/h (0 Bft)
11.07.2010 07:00 27,2 C 20,8 C 0,3 UV-I 0,0 C 62 % 93 % 0 % 1018,2 hPa 0,0 l/m 0,4 km/h (0 Bft) 0 min 0,0 km/h (0 Bft)
11.07.2010 07:02 27,1 C 20,9 C 0,3 UV-I 0,0 C 62 % 93 % 0 % 1018,2 hPa 0,0 l/m 0,0 km/h (0 Bft) 0 min 0,0 km/h (0 Bft)
11.07.2010 07:04 27,2 C 20,8 C 0,3 UV-I 0,0 C 62 % 93 % 0 % 1018,2 hPa 0,0 l/m 0,0 km/h (0 Bft) 0 min 4,2 km/h (1 Bft)
11.07.2010 07:06 27,2 C 20,8 C 0,4 UV-I 0,0 C 62 % 93 % 0 % 1018,2 hPa 0,0 l/m 0,8 km/h (0 Bft) 0 min 6,1 km/h (2 Bft)
11.07.2010 07:08 27,2 C 20,8 C 0,4 UV-I 0,0 C 62 % 93 % 0 % 1018,2 hPa 0,0 l/m 0,8 km/h (0 Bft) 0 min 0,0 km/h (0 Bft)
11.07.2010 07:10 27,2 C 21,0 C 0,4 UV-I 0,0 C 62 % 93 % 0 % 1018,9 hPa 0,0 l/m 1,2 km/h (1 Bft) 0 min 6,4 km/h (2 Bft)
11.07.2010 07:12 27,1 C 21,0 C 0,5 UV-I 0,0 C 62 % 93 % 0 % 1018,9 hPa 0,0 l/m 2,0 km/h (1 Bft) 0 min 6,1 km/h (2 Bft)
11.07.2010 07:14 27,1 C 21,1 C 0,5 UV-I 0,0 C 63 % 93 % 0 % 1018,9 hPa 0,0 l/m 2,0 km/h (1 Bft) 0 min 4,2 km/h (1 Bft)
11.07.2010 07:16 27,1 C 21,1 C 0,5 UV-I 0,0 C 63 % 93 % 0 % 1018,9 hPa 0,0 l/m 2,4 km/h (1 Bft) 0 min 3,5 km/h (1 Bft)
11.07.2010 07:18 27,1 C 21,1 C 0,3 UV-I 0,0 C 63 % 93 % 0 % 1018,9 hPa 0,0 l/m 2,4 km/h (1 Bft) 0 min 4,5 km/h (1 Bft)
11.07.2010 07:20 27,1 C 21,1 C 0,2 UV-I 0,0 C 63 % 93 % 0 % 1018,9 hPa 0,0 l/m 2,8 km/h (1 Bft) 0 min 0,0 km/h (0 Bft)
11.07.2010 07:22 27,1 C 21,1 C 0,2 UV-I 0,0 C 63 % 93 % 0 % 1018,9 hPa 0,0 l/m 3,2 km/h (1 Bft) 0 min 6,1 km/h (2 Bft)
11.07.2010 07:24 27,1 C 21,1 C 0,2 UV-I 0,0 C 63 % 93 % 0 % 1018,9 hPa 0,0 l/m 2,8 km/h (1 Bft) 0 min 0,0 km/h (0 Bft)
11.07.2010 07:26 27,1 C 21,1 C 0,2 UV-I 0,0 C 63 % 93 % 0 % 1018,9 hPa 0,0 l/m 3,2 km/h (1 Bft) 0 min 4,2 km/h (1 Bft)
11.07.2010 07:28 27,1 C 21,1 C 0,5 UV-I 0,0 C 63 % 93 % 0 % 1018,9 hPa 0,0 l/m 3,2 km/h (1 Bft) 0 min 0,0 km/h (0 Bft)
11.07.2010 07:30 27,1 C 21,2 C 0,5 UV-I 0,0 C 63 % 93 % 0 % 1019,3 hPa 0,0 l/m 3,2 km/h (1 Bft) 0 min 0,0 km/h (0 Bft)
11.07.2010 07:32 27,1 C 21,1 C 0,6 UV-I 0,0 C 63 % 93 % 0 % 1019,3 hPa 0,0 l/m 3,6 km/h (1 Bft) 0 min 0,0 km/h (0 Bft)
11.07.2010 07:34 27,1 C 21,1 C 0,6 UV-I 0,0 C 63 % 93 % 0 % 1019,3 hPa 0,0 l/m 2,4 km/h (1 Bft) 0 min 0,0 km/h (0 Bft)
11.07.2010 07:36 27,1 C 21,1 C 0,6 UV-I 0,0 C 63 % 93 % 0 % 1019,3 hPa 0,0 l/m 2,4 km/h (1 Bft) 0 min 0,0 km/h (0 Bft)
11.07.2010 07:38 27,0 C 21,2 C 0,6 UV-I 0,0 C 63 % 92 % 0 % 1019,3 hPa 0,0 l/m 2,0 km/h (1 Bft) 0 min 0,0 km/h (0 Bft)
11.07.2010 07:40 27,1 C 21,2 C 0,6 UV-I 0,0 C 63 % 92 % 0 % 1019,3 hPa 0,0 l/m 1,6 km/h (1 Bft) 0 min 3,5 km/h (1 Bft)
11.07.2010 07:42 27,0 C 21,1 C 1,1 UV-I 0,0 C 63 % 92 % 0 % 1019,3 hPa 0,0 l/m 1,2 km/h (1 Bft) 0 min 0,0 km/h (0 Bft)
11.07.2010 07:44 27,0 C 21,2 C 1,1 UV-I 0,0 C 63 % 92 % 0 % 1019,3 hPa 0,0 l/m 1,2 km/h (1 Bft) 0 min 0,0 km/h (0 Bft)
11.07.2010 07:46 27,1 C 21,1 C 1,1 UV-I 0,0 C 63 % 92 % 0 % 1019,3 hPa 0,0 l/m 0,8 km/h (0 Bft) 0 min 0,0 km/h (0 Bft)
11.07.2010 07:48 27,1 C 21,1 C 0,7 UV-I 0,0 C 63 % 92 % 0 % 1019,3 hPa 0,0 l/m 0,8 km/h (0 Bft) 0 min 3,2 km/h (1 Bft)
11.07.2010 07:50 27,0 C 21,2 C 0,9 UV-I 0,0 C 63 % 92 % 0 % 1019,8 hPa 0,0 l/m 1,2 km/h (1 Bft) 0 min 0,0 km/h (0 Bft)
11.07.2010 07:52 27,0 C 21,1 C 0,9 UV-I 0,0 C 63 % 92 % 0 % 1019,8 hPa 0,0 l/m 0,8 km/h (0 Bft) 0 min 0,0 km/h (0 Bft)
11.07.2010 07:54 27,1 C 21,1 C 0,9 UV-I 0,0 C 63 % 92 % 0 % 1019,8 hPa 0,0 l/m 1,2 km/h (1 Bft) 0 min 3,9 km/h (1 Bft)
11.07.2010 07:56 27,0 C 21,2 C 1,3 UV-I 0,0 C 64 % 92 % 0 % 1019,8 hPa 0,0 l/m 1,2 km/h (1 Bft) 0 min 0,0 km/h (0 Bft)
11.07.2010 07:58 27,0 C 21,2 C 1,3 UV-I 0,0 C 64 % 92 % 0 % 1019,8 hPa 0,0 l/m 1,2 km/h (1 Bft) 0 min 0,0 km/h (0 Bft)
11.07.2010 08:00 27,0 C 21,2 C 1,9 UV-I 0,0 C 64 % 92 % 0 % 1019,8 hPa 0,0 l/m 2,0 km/h (1 Bft) 0 min 6,1 km/h (2 Bft)
11.07.2010 08:02 27,0 C 21,3 C 1,9 UV-I 0,0 C 64 % 93 % 0 % 1019,8 hPa 0,0 l/m 2,0 km/h (1 Bft) 0 min 6,1 km/h (2 Bft)
11.07.2010 08:04 27,0 C 21,3 C 1,9 UV-I 0,0 C 64 % 93 % 0 % 1019,8 hPa 0,0 l/m 2,4 km/h (1 Bft) 0 min 5,5 km/h (1 Bft)
11.07.2010 08:06 27,0 C 21,3 C 1,9 UV-I 0,1 C 64 % 93 % 3 % 1019,8 hPa 0,0 l/m 2,0 km/h (1 Bft) 0 min 0,0 km/h (0 Bft)
11.07.2010 08:08 27,0 C 21,3 C 2,3 UV-I 0,2 C 64 % 93 % 6 % 1019,8 hPa 0,0 l/m 2,0 km/h (1 Bft) 0 min 3,5 km/h (1 Bft)
11.07.2010 08:10 27,0 C 21,4 C 2,3 UV-I 0,3 C 64 % 93 % 9 % 1019,9 hPa 0,0 l/m 2,0 km/h (1 Bft) 0 min 0,0 km/h (0 Bft)
11.07.2010 08:12 27,0 C 21,5 C 2,4 UV-I 0,2 C 64 % 93 % 6 % 1019,9 hPa 0,0 l/m 1,2 km/h (1 Bft) 0 min 0,0 km/h (0 Bft)
11.07.2010 08:14 27,0 C 21,5 C 2,4 UV-I 0,3 C 64 % 93 % 9 % 1019,9 hPa 0,0 l/m 1,2 km/h (1 Bft) 0 min 5,8 km/h (2 Bft)
11.07.2010 08:16 27,0 C 21,5 C 2,4 UV-I 0,4 C 64 % 93 % 11 % 1019,9 hPa 0,0 l/m 2,0 km/h (1 Bft) 0 min 5,5 km/h (1 Bft)
11.07.2010 08:20 27,0 C 21,6 C 2,6 UV-I 1,4 C 64 % 93 % 40 % 1019,9 hPa 0,0 l/m 2,0 km/h (1 Bft) 0 min 4,2 km/h (1 Bft)
11.07.2010 08:22 27,0 C 21,7 C 2,9 UV-I 2,5 C 64 % 93 % 71 % 1019,9 hPa 0,0 l/m 2,8 km/h (1 Bft) 0 min 5,8 km/h (2 Bft)
11.07.2010 08:26 27,0 C 21,8 C 2,9 UV-I 2,9 C 64 % 93 % 83 % 1019,9 hPa 0,0 l/m 3,2 km/h (1 Bft) 2 min 5,5 km/h (1 Bft)
11.07.2010 08:28 27,0 C 21,8 C 2,9 UV-I 3,3 C 64 % 93 % 94 % 1019,9 hPa 0,0 l/m 2,8 km/h (1 Bft) 2 min 0,0 km/h (0 Bft)
11.07.2010 08:30 27,0 C 21,9 C 3,1 UV-I 3,7 C 64 % 92 % 100 % 1020,1 hPa 0,0 l/m 2,8 km/h (1 Bft) 2 min 3,2 km/h (1 Bft)
11.07.2010 08:32 27,0 C 21,9 C 3,1 UV-I 4,0 C 64 % 92 % 100 % 1020,1 hPa 0,0 l/m 3,2 km/h (1 Bft) 2 min 10,3 km/h (2 Bft)
11.07.2010 08:34 27,0 C 22,0 C 3,1 UV-I 4,2 C 64 % 92 % 100 % 1020,1 hPa 0,0 l/m 3,6 km/h (1 Bft) 2 min 3,5 km/h (1 Bft)
11.07.2010 08:36 27,0 C 22,1 C 3,6 UV-I 4,6 C 64 % 92 % 100 % 1020,1 hPa 0,0 l/m 3,6 km/h (1 Bft) 2 min 6,1 km/h (2 Bft)
11.07.2010 08:38 27,0 C 22,3 C 3,6 UV-I 4,5 C 64 % 92 % 100 % 1020,1 hPa 0,0 l/m 4,0 km/h (1 Bft) 2 min 5,8 km/h (2 Bft)
11.07.2010 08:40 27,0 C 22,3 C 4,3 UV-I 4,7 C 64 % 91 % 100 % 1020,1 hPa 0,0 l/m 4,8 km/h (1 Bft) 2 min 10,6 km/h (2 Bft)
11.07.2010 08:42 27,0 C 22,4 C 4,3 UV-I 4,6 C 64 % 91 % 100 % 1020,1 hPa 0,0 l/m 4,8 km/h (1 Bft) 2 min 10,6 km/h (2 Bft)
11.07.2010 08:44 27,1 C 22,5 C 4,3 UV-I 4,6 C 64 % 91 % 100 % 1020,1 hPa 0,0 l/m 4,4 km/h (1 Bft) 2 min 3,9 km/h (1 Bft)
11.07.2010 08:46 27,0 C 22,6 C 4,3 UV-I 4,7 C 64 % 91 % 100 % 1020,1 hPa 0,0 l/m 4,4 km/h (1 Bft) 2 min 5,5 km/h (1 Bft)
11.07.2010 08:48 27,0 C 22,6 C 4,3 UV-I 4,9 C 64 % 91 % 100 % 1020,1 hPa 0,0 l/m 4,4 km/h (1 Bft) 2 min 7,4 km/h (2 Bft)
11.07.2010 08:50 27,1 C 22,9 C 4,7 UV-I 4,8 C 64 % 91 % 100 % 1020,1 hPa 0,0 l/m 4,4 km/h (1 Bft) 2 min 6,1 km/h (2 Bft)
11.07.2010 08:52 27,1 C 22,9 C 4,7 UV-I 4,9 C 64 % 90 % 100 % 1020,1 hPa 0,0 l/m 4,4 km/h (1 Bft) 2 min 3,9 km/h (1 Bft)
11.07.2010 08:56 27,1 C 23,2 C 4,7 UV-I 5,1 C 64 % 89 % 100 % 1020,1 hPa 0,0 l/m 3,2 km/h (1 Bft) 2 min 0,0 km/h (0 Bft)
11.07.2010 08:58 27,1 C 23,2 C 5,0 UV-I 5,3 C 64 % 89 % 100 % 1020,1 hPa 0,0 l/m 3,2 km/h (1 Bft) 2 min 4,2 km/h (1 Bft)
11.07.2010 09:00 27,1 C 23,2 C 5,0 UV-I 5,4 C 64 % 89 % 100 % 1020,1 hPa 0,0 l/m 2,8 km/h (1 Bft) 2 min 3,5 km/h (1 Bft)
11.07.2010 09:02 27,1 C 23,3 C 5,2 UV-I 5,4 C 64 % 89 % 100 % 1020,1 hPa 0,0 l/m 2,0 km/h (1 Bft) 2 min 4,2 km/h (1 Bft)
11.07.2010 09:04 27,1 C 23,5 C 5,2 UV-I 5,5 C 64 % 88 % 100 % 1020,1 hPa 0,0 l/m 2,4 km/h (1 Bft) 2 min 12,9 km/h (3 Bft)
11.07.2010 09:06 27,1 C 23,5 C 5,2 UV-I 4,9 C 64 % 88 % 100 % 1020,1 hPa 0,0 l/m 3,2 km/h (1 Bft) 2 min 10,9 km/h (2 Bft)
11.07.2010 09:08 27,1 C 23,5 C 4,5 UV-I 4,7 C 64 % 88 % 100 % 1020,1 hPa 0,0 l/m 3,6 km/h (1 Bft) 2 min 9,7 km/h (2 Bft)
11.07.2010 09:10 27,1 C 23,5 C 4,5 UV-I 4,3 C 64 % 87 % 100 % 1020,6 hPa 0,0 l/m 3,2 km/h (1 Bft) 2 min 7,1 km/h (2 Bft)
11.07.2010 09:12 27,1 C 23,5 C 4,5 UV-I 3,9 C 64 % 87 % 100 % 1020,6 hPa 0,0 l/m 4,0 km/h (1 Bft) 2 min 0,0 km/h (0 Bft)
11.07.2010 09:14 27,1 C 23,7 C 4,5 UV-I 3,7 C 64 % 87 % 100 % 1020,6 hPa 0,0 l/m 4,0 km/h (1 Bft) 2 min 0,0 km/h (0 Bft)
11.07.2010 09:16 27,1 C 23,7 C 4,5 UV-I 3,9 C 64 % 87 % 100 % 1020,6 hPa 0,0 l/m 2,8 km/h (1 Bft) 2 min 3,2 km/h (1 Bft)
11.07.2010 09:18 27,1 C 23,8 C 5,7 UV-I 4,2 C 64 % 86 % 100 % 1020,6 hPa 0,0 l/m 2,8 km/h (1 Bft) 2 min 5,1 km/h (1 Bft)
11.07.2010 09:20 27,2 C 23,8 C 4,6 UV-I 4,1 C 64 % 86 % 100 % 1020,6 hPa 0,0 l/m 2,4 km/h (1 Bft) 2 min 4,2 km/h (1 Bft)
11.07.2010 09:22 27,2 C 23,9 C 4,6 UV-I 4,0 C 64 % 86 % 100 % 1020,6 hPa 0,0 l/m 2,4 km/h (1 Bft) 2 min 4,2 km/h (1 Bft)
11.07.2010 09:24 27,2 C 24,1 C 4,6 UV-I 3,7 C 64 % 86 % 100 % 1020,6 hPa 0,0 l/m 2,0 km/h (1 Bft) 2 min 5,8 km/h (2 Bft)
11.07.2010 09:26 27,2 C 24,1 C 4,6 UV-I 4,0 C 64 % 86 % 100 % 1020,6 hPa 0,0 l/m 2,0 km/h (1 Bft) 2 min 0,0 km/h (0 Bft)
11.07.2010 09:28 27,2 C 24,1 C 5,9 UV-I 4,5 C 64 % 86 % 100 % 1020,6 hPa 0,0 l/m 1,6 km/h (1 Bft) 2 min 0,0 km/h (0 Bft)
11.07.2010 09:30 27,2 C 24,2 C 5,9 UV-I 4,2 C 64 % 85 % 100 % 1020,4 hPa 0,0 l/m 1,2 km/h (1 Bft) 2 min 3,5 km/h (1 Bft)
11.07.2010 09:32 27,2 C 24,3 C 4,6 UV-I 3,9 C 64 % 84 % 100 % 1020,4 hPa 0,0 l/m 1,2 km/h (1 Bft) 2 min 0,0 km/h (0 Bft)
11.07.2010 09:34 27,2 C 24,2 C 4,6 UV-I 4,1 C 64 % 84 % 100 % 1020,4 hPa 0,0 l/m 1,6 km/h (1 Bft) 2 min 7,7 km/h (2 Bft)
11.07.2010 09:36 27,2 C 24,3 C 6,9 UV-I 4,0 C 64 % 85 % 100 % 1020,4 hPa 0,0 l/m 1,6 km/h (1 Bft) 2 min 7,7 km/h (2 Bft)
11.07.2010 09:38 27,2 C 24,5 C 6,9 UV-I 4,1 C 64 % 84 % 100 % 1020,4 hPa 0,0 l/m 2,0 km/h (1 Bft) 2 min 0,0 km/h (0 Bft)
11.07.2010 09:40 27,2 C 24,5 C 8,4 UV-I 4,9 C 65 % 84 % 100 % 1020,4 hPa 0,0 l/m 3,6 km/h (1 Bft) 2 min 7,1 km/h (2 Bft)
11.07.2010 09:42 27,2 C 24,6 C 8,4 UV-I 4,9 C 65 % 83 % 100 % 1020,4 hPa 0,0 l/m 3,6 km/h (1 Bft) 2 min 7,1 km/h (2 Bft)
11.07.2010 09:46 27,2 C 24,7 C 8,4 UV-I 5,0 C 65 % 83 % 100 % 1020,4 hPa 0,0 l/m 4,4 km/h (1 Bft) 2 min 6,4 km/h (2 Bft)
11.07.2010 09:48 27,2 C 24,7 C 8,8 UV-I 5,0 C 65 % 83 % 100 % 1020,4 hPa 0,0 l/m 4,8 km/h (1 Bft) 2 min 8,0 km/h (2 Bft)
11.07.2010 09:50 27,2 C 24,9 C 9,9 UV-I 4,9 C 65 % 82 % 100 % 1020,3 hPa 0,0 l/m 5,2 km/h (1 Bft) 2 min 7,1 km/h (2 Bft)
11.07.2010 09:52 27,2 C 25,1 C 9,9 UV-I 5,0 C 65 % 83 % 100 % 1020,3 hPa 0,0 l/m 4,8 km/h (1 Bft) 2 min 3,2 km/h (1 Bft)
11.07.2010 09:54 27,2 C 25,1 C 9,9 UV-I 5,4 C 65 % 83 % 100 % 1020,3 hPa 0,0 l/m 4,4 km/h (1 Bft) 2 min 4,8 km/h (1 Bft)
11.07.2010 09:56 27,2 C 25,3 C 10,3 UV-I 5,6 C 65 % 82 % 100 % 1020,3 hPa 0,0 l/m 3,6 km/h (1 Bft) 2 min 4,2 km/h (1 Bft)
11.07.2010 09:58 27,2 C 25,3 C 10,3 UV-I 5,7 C 65 % 82 % 100 % 1020,3 hPa 0,0 l/m 3,2 km/h (1 Bft) 2 min 0,0 km/h (0 Bft)
11.07.2010 10:00 27,3 C 25,5 C 11,4 UV-I 5,6 C 65 % 82 % 100 % 1020,3 hPa 0,0 l/m 2,4 km/h (1 Bft) 2 min 0,0 km/h (0 Bft)
11.07.2010 10:04 27,3 C 25,7 C 11,4 UV-I 5,7 C 65 % 79 % 100 % 1020,3 hPa 0,0 l/m 3,2 km/h (1 Bft) 2 min 9,0 km/h (2 Bft)
11.07.2010 10:06 27,2 C 25,6 C 11,4 UV-I 5,8 C 65 % 79 % 100 % 1020,3 hPa 0,0 l/m 4,0 km/h (1 Bft) 2 min 12,9 km/h (3 Bft)
11.07.2010 10:08 27,2 C 25,6 C 12,2 UV-I 5,7 C 65 % 79 % 100 % 1020,3 hPa 0,0 l/m 5,2 km/h (1 Bft) 2 min 7,1 km/h (2 Bft)
11.07.2010 10:10 27,3 C 25,9 C 12,7 UV-I 5,4 C 64 % 79 % 100 % 1020,4 hPa 0,0 l/m 6,0 km/h (2 Bft) 2 min 4,2 km/h (1 Bft)
11.07.2010 10:14 27,3 C 26,0 C 12,7 UV-I 5,4 C 64 % 78 % 100 % 1020,4 hPa 0,0 l/m 7,2 km/h (2 Bft) 2 min 6,1 km/h (2 Bft)
11.07.2010 10:16 27,2 C 26,1 C 13,0 UV-I 5,3 C 64 % 77 % 100 % 1020,4 hPa 0,0 l/m 6,0 km/h (2 Bft) 2 min 6,1 km/h (2 Bft)
11.07.2010 10:18 27,2 C 26,0 C 13,0 UV-I 5,6 C 64 % 78 % 100 % 1020,4 hPa 0,0 l/m 5,2 km/h (1 Bft) 2 min 4,5 km/h (1 Bft)
11.07.2010 10:20 27,2 C 26,1 C 13,4 UV-I 5,8 C 64 % 78 % 100 % 1020,4 hPa 0,0 l/m 5,2 km/h (1 Bft) 2 min 10,6 km/h (2 Bft)
11.07.2010 10:22 27,4 C 26,3 C 13,4 UV-I 5,6 C 64 % 77 % 100 % 1020,4 hPa 0,0 l/m 5,2 km/h (1 Bft) 2 min 10,6 km/h (2 Bft)
11.07.2010 10:24 27,2 C 26,3 C 13,4 UV-I 5,7 C 64 % 76 % 100 % 1020,4 hPa 0,0 l/m 5,2 km/h (1 Bft) 2 min 5,1 km/h (1 Bft)
11.07.2010 10:30 27,4 C 26,5 C 11,9 UV-I 6,1 C 64 % 76 % 100 % 1020,2 hPa 0,0 l/m 3,6 km/h (1 Bft) 2 min 6,1 km/h (2 Bft)
11.07.2010 10:32 27,4 C 26,6 C 11,9 UV-I 6,0 C 64 % 76 % 100 % 1020,2 hPa 0,0 l/m 3,2 km/h (1 Bft) 2 min 3,9 km/h (1 Bft)
11.07.2010 10:34 27,4 C 26,8 C 11,9 UV-I 5,8 C 64 % 75 % 100 % 1020,2 hPa 0,0 l/m 3,2 km/h (1 Bft) 2 min 5,1 km/h (1 Bft)
11.07.2010 10:36 27,4 C 26,8 C 12,3 UV-I 5,8 C 64 % 75 % 100 % 1020,2 hPa 0,0 l/m 3,2 km/h (1 Bft) 2 min 5,1 km/h (1 Bft)
11.07.2010 10:38 27,4 C 26,9 C 12,3 UV-I 5,9 C 64 % 74 % 100 % 1020,2 hPa 0,0 l/m 3,2 km/h (1 Bft) 2 min 0,0 km/h (0 Bft)
11.07.2010 10:42 27,4 C 27,1 C 13,3 UV-I 5,7 C 64 % 74 % 100 % 1020,2 hPa 0,0 l/m 3,6 km/h (1 Bft) 2 min 6,1 km/h (2 Bft)
11.07.2010 10:44 27,4 C 27,1 C 13,3 UV-I 5,7 C 64 % 73 % 100 % 1020,2 hPa 0,0 l/m 4,4 km/h (1 Bft) 2 min 10,0 km/h (2 Bft)
11.07.2010 10:48 27,4 C 27,1 C 13,1 UV-I 5,7 C 64 % 74 % 100 % 1020,2 hPa 0,0 l/m 5,6 km/h (1 Bft) 2 min 6,1 km/h (2 Bft)
11.07.2010 10:50 27,4 C 27,1 C 13,7 UV-I 5,6 C 64 % 73 % 100 % 1020,4 hPa 0,0 l/m 6,4 km/h (2 Bft) 2 min 7,7 km/h (2 Bft)
11.07.2010 10:52 27,4 C 27,3 C 13,7 UV-I 5,4 C 64 % 73 % 100 % 1020,4 hPa 0,0 l/m 6,4 km/h (2 Bft) 2 min 7,7 km/h (2 Bft)
11.07.2010 10:58 27,5 C 27,3 C 13,7 UV-I 5,5 C 64 % 72 % 100 % 1020,4 hPa 0,0 l/m 6,8 km/h (2 Bft) 2 min 9,0 km/h (2 Bft)
11.07.2010 11:00 27,5 C 27,3 C 13,7 UV-I 5,2 C 64 % 73 % 100 % 1020,4 hPa 0,0 l/m 5,6 km/h (1 Bft) 2 min 4,5 km/h (1 Bft)
11.07.2010 11:04 27,5 C 27,2 C 13,7 UV-I 5,0 C 64 % 73 % 100 % 1020,4 hPa 0,0 l/m 4,8 km/h (1 Bft) 2 min 3,9 km/h (1 Bft)
11.07.2010 11:06 27,5 C 27,3 C 10,1 UV-I 4,8 C 64 % 72 % 100 % 1020,4 hPa 0,0 l/m 3,6 km/h (1 Bft) 2 min 3,9 km/h (1 Bft)
11.07.2010 11:08 27,5 C 27,3 C 10,1 UV-I 4,8 C 64 % 72 % 100 % 1020,4 hPa 0,0 l/m 2,8 km/h (1 Bft) 2 min 3,5 km/h (1 Bft)
11.07.2010 11:10 27,6 C 27,5 C 11,3 UV-I 5,0 C 64 % 70 % 100 % 1020,4 hPa 0,0 l/m 2,4 km/h (1 Bft) 2 min 6,8 km/h (2 Bft)
11.07.2010 11:12 27,6 C 27,4 C 11,3 UV-I 5,5 C 64 % 70 % 100 % 1020,4 hPa 0,0 l/m 2,4 km/h (1 Bft) 2 min 3,9 km/h (1 Bft)
11.07.2010 11:14 27,6 C 27,4 C 11,3 UV-I 5,4 C 64 % 71 % 100 % 1020,4 hPa 0,0 l/m 2,8 km/h (1 Bft) 2 min 4,2 km/h (1 Bft)
11.07.2010 11:16 27,6 C 27,5 C 11,4 UV-I 5,1 C 64 % 71 % 100 % 1020,4 hPa 0,0 l/m 2,8 km/h (1 Bft) 2 min 3,9 km/h (1 Bft)
11.07.2010 11:22 27,6 C 27,7 C 12,0 UV-I 4,9 C 63 % 70 % 100 % 1020,4 hPa 0,0 l/m 2,4 km/h (1 Bft) 2 min 0,0 km/h (0 Bft)
11.07.2010 11:24 27,6 C 27,7 C 12,0 UV-I 5,5 C 63 % 70 % 100 % 1020,4 hPa 0,0 l/m 1,6 km/h (1 Bft) 2 min 0,0 km/h (0 Bft)
11.07.2010 11:26 27,6 C 27,8 C 9,1 UV-I 5,4 C 63 % 70 % 100 % 1020,4 hPa 0,0 l/m 1,6 km/h (1 Bft) 2 min 3,2 km/h (1 Bft)
11.07.2010 11:30 27,6 C 27,8 C 9,2 UV-I 5,2 C 63 % 69 % 100 % 1020,4 hPa 0,0 l/m 1,2 km/h (1 Bft) 2 min 0,0 km/h (0 Bft)
11.07.2010 11:32 27,6 C 27,9 C 9,2 UV-I 4,9 C 63 % 70 % 100 % 1020,4 hPa 0,0 l/m 0,8 km/h (0 Bft) 2 min 0,0 km/h (0 Bft)
11.07.2010 11:34 27,6 C 27,9 C 9,2 UV-I 5,1 C 63 % 69 % 100 % 1020,4 hPa 0,0 l/m 1,2 km/h (1 Bft) 2 min 3,9 km/h (1 Bft)
11.07.2010 11:36 27,7 C 27,9 C 11,5 UV-I 5,1 C 63 % 70 % 100 % 1020,4 hPa 0,0 l/m 1,2 km/h (1 Bft) 2 min 3,9 km/h (1 Bft)
11.07.2010 11:38 27,7 C 27,9 C 11,5 UV-I 5,4 C 63 % 68 % 100 % 1020,4 hPa 0,0 l/m 2,0 km/h (1 Bft) 2 min 5,8 km/h (2 Bft)
11.07.2010 11:40 27,7 C 27,9 C 7,0 UV-I 4,9 C 63 % 68 % 100 % 1020,4 hPa 0,0 l/m 2,0 km/h (1 Bft) 2 min 5,8 km/h (2 Bft)
11.07.2010 11:42 27,7 C 28,0 C 7,0 UV-I 4,8 C 63 % 68 % 100 % 1020,4 hPa 0,0 l/m 2,0 km/h (1 Bft) 2 min 3,5 km/h (1 Bft)
11.07.2010 11:44 27,7 C 28,1 C 7,0 UV-I 4,3 C 63 % 69 % 100 % 1020,4 hPa 0,0 l/m 2,0 km/h (1 Bft) 2 min 0,0 km/h (0 Bft)
11.07.2010 11:48 27,7 C 28,1 C 9,9 UV-I 4,5 C 63 % 69 % 100 % 1020,4 hPa 0,0 l/m 1,6 km/h (1 Bft) 2 min 12,6 km/h (3 Bft)
11.07.2010 11:50 27,8 C 28,3 C 11,3 UV-I 4,8 C 63 % 68 % 100 % 1020,5 hPa 0,0 l/m 3,2 km/h (1 Bft) 2 min 7,4 km/h (2 Bft)
11.07.2010 11:52 27,8 C 28,4 C 11,3 UV-I 4,7 C 63 % 69 % 100 % 1020,5 hPa 0,0 l/m 3,2 km/h (1 Bft) 2 min 7,4 km/h (2 Bft)
11.07.2010 11:54 27,8 C 28,5 C 11,3 UV-I 4,7 C 63 % 68 % 100 % 1020,5 hPa 0,0 l/m 5,2 km/h (1 Bft) 2 min 8,4 km/h (2 Bft)
11.07.2010 11:56 27,8 C 28,4 C 8,7 UV-I 4,8 C 63 % 68 % 100 % 1020,5 hPa 0,0 l/m 5,2 km/h (1 Bft) 2 min 5,8 km/h (2 Bft)
11.07.2010 12:00 27,8 C 28,6 C 11,0 UV-I 4,2 C 63 % 68 % 100 % 1020,5 hPa 0,0 l/m 4,4 km/h (1 Bft) 2 min 0,0 km/h (0 Bft)
11.07.2010 12:02 27,8 C 28,7 C 11,0 UV-I 4,7 C 63 % 67 % 100 % 1020,5 hPa 0,0 l/m 4,0 km/h (1 Bft) 2 min 5,8 km/h (2 Bft)
11.07.2010 12:04 27,8 C 28,7 C 11,0 UV-I 4,7 C 63 % 67 % 100 % 1020,5 hPa 0,0 l/m 2,4 km/h (1 Bft) 2 min 6,1 km/h (2 Bft)
11.07.2010 12:08 27,8 C 28,6 C 10,2 UV-I 4,8 C 63 % 66 % 100 % 1020,5 hPa 0,0 l/m 2,4 km/h (1 Bft) 2 min 0,0 km/h (0 Bft)
11.07.2010 12:10 27,9 C 28,7 C 10,9 UV-I 4,9 C 63 % 67 % 100 % 1020,8 hPa 0,0 l/m 2,4 km/h (1 Bft) 2 min 3,2 km/h (1 Bft)
11.07.2010 12:14 27,9 C 28,7 C 10,9 UV-I 5,2 C 63 % 66 % 100 % 1020,8 hPa 0,0 l/m 4,0 km/h (1 Bft) 2 min 4,5 km/h (1 Bft)
11.07.2010 12:16 27,9 C 28,7 C 11,0 UV-I 5,5 C 63 % 66 % 100 % 1020,8 hPa 0,0 l/m 3,6 km/h (1 Bft) 2 min 8,7 km/h (2 Bft)
11.07.2010 12:24 28,0 C 29,1 C 10,0 UV-I 4,5 C 62 % 64 % 100 % 1020,8 hPa 0,0 l/m 6,4 km/h (2 Bft) 2 min 14,8 km/h (3 Bft)
11.07.2010 12:26 27,9 C 29,1 C 10,4 UV-I 4,5 C 62 % 65 % 100 % 1020,8 hPa 0,0 l/m 6,4 km/h (2 Bft) 2 min 0,0 km/h (0 Bft)
11.07.2010 12:30 28,0 C 29,1 C 11,0 UV-I 4,8 C 62 % 64 % 100 % 1020,4 hPa 0,0 l/m 8,0 km/h (2 Bft) 2 min 9,7 km/h (2 Bft)
11.07.2010 12:32 28,0 C 29,2 C 11,0 UV-I 4,7 C 62 % 64 % 100 % 1020,4 hPa 0,0 l/m 6,4 km/h (2 Bft) 2 min 15,8 km/h (3 Bft)
11.07.2010 12:40 28,0 C 29,3 C 10,6 UV-I 4,8 C 62 % 65 % 100 % 1020,4 hPa 0,0 l/m 4,8 km/h (1 Bft) 2 min 6,1 km/h (2 Bft)
11.07.2010 12:42 28,0 C 29,5 C 10,6 UV-I 4,6 C 62 % 64 % 100 % 1020,4 hPa 0,0 l/m 4,8 km/h (1 Bft) 2 min 5,5 km/h (1 Bft)
11.07.2010 12:43 28,0 C 29,5 C 10,6 UV-I 4,9 C 62 % 64 % 100 % 1020,4 hPa 0,0 l/m 4,4 km/h (1 Bft) 1 min 13,5 km/h (3 Bft)
11.07.2010 12:48 28,0 C 29,7 C 10,5 UV-I 5,0 C 62 % 64 % 100 % 1020,4 hPa 0,0 l/m 4,8 km/h (1 Bft) 2 min 3,9 km/h (1 Bft)
11.07.2010 12:50 28,1 C 29,9 C 8,8 UV-I 4,8 C 62 % 61 % 100 % 1020,6 hPa 0,0 l/m 5,6 km/h (1 Bft) 2 min 11,9 km/h (2 Bft)
11.07.2010 12:52 28,1 C 29,7 C 8,8 UV-I 4,5 C 62 % 61 % 100 % 1020,6 hPa 0,0 l/m 6,4 km/h (2 Bft) 2 min 5,1 km/h (1 Bft)
11.07.2010 12:54 28,1 C 29,8 C 8,8 UV-I 4,1 C 62 % 62 % 100 % 1020,6 hPa 0,0 l/m 6,0 km/h (2 Bft) 2 min 6,8 km/h (2 Bft)
11.07.2010 12:56 28,1 C 29,8 C 10,3 UV-I 4,1 C 62 % 62 % 100 % 1020,6 hPa 0,0 l/m 5,6 km/h (1 Bft) 2 min 6,4 km/h (2 Bft)
11.07.2010 12:58 28,1 C 29,9 C 10,3 UV-I 4,2 C 62 % 61 % 100 % 1020,6 hPa 0,0 l/m 5,6 km/h (1 Bft) 2 min 6,8 km/h (2 Bft)
11.07.2010 13:00 28,2 C 30,1 C 10,6 UV-I 4,1 C 62 % 61 % 100 % 1020,6 hPa 0,0 l/m 5,6 km/h (1 Bft) 2 min 9,3 km/h (2 Bft)
11.07.2010 13:02 28,1 C 30,2 C 10,6 UV-I 4,2 C 62 % 60 % 100 % 1020,6 hPa 0,0 l/m 5,6 km/h (1 Bft) 2 min 3,9 km/h (1 Bft)
11.07.2010 13:04 28,2 C 30,2 C 10,6 UV-I 4,3 C 62 % 60 % 100 % 1020,6 hPa 0,0 l/m 6,4 km/h (2 Bft) 2 min 5,8 km/h (2 Bft)
11.07.2010 13:06 28,2 C 30,3 C 10,6 UV-I 4,4 C 62 % 60 % 100 % 1020,6 hPa 0,0 l/m 6,0 km/h (2 Bft) 2 min 0,0 km/h (0 Bft)
11.07.2010 13:08 28,2 C 30,3 C 10,6 UV-I 4,8 C 62 % 60 % 100 % 1020,6 hPa 0,0 l/m 5,6 km/h (1 Bft) 2 min 8,7 km/h (2 Bft)
11.07.2010 13:10 28,2 C 30,4 C 9,6 UV-I 5,0 C 62 % 58 % 100 % 1020,8 hPa 0,0 l/m 6,4 km/h (2 Bft) 2 min 15,8 km/h (3 Bft)
11.07.2010 13:12 28,2 C 30,5 C 9,6 UV-I 4,7 C 62 % 59 % 100 % 1020,8 hPa 0,0 l/m 6,4 km/h (2 Bft) 2 min 10,3 km/h (2 Bft)
11.07.2010 13:14 28,2 C 30,6 C 9,6 UV-I 4,2 C 62 % 58 % 100 % 1020,8 hPa 0,0 l/m 6,4 km/h (2 Bft) 2 min 10,9 km/h (2 Bft)
11.07.2010 13:16 28,3 C 30,7 C 10,8 UV-I 4,1 C 62 % 58 % 100 % 1020,8 hPa 0,0 l/m 6,8 km/h (2 Bft) 2 min 4,2 km/h (1 Bft)
11.07.2010 13:18 28,3 C 30,6 C 10,8 UV-I 4,5 C 62 % 59 % 100 % 1020,8 hPa 0,0 l/m 7,2 km/h (2 Bft) 2 min 8,0 km/h (2 Bft)
11.07.2010 13:20 28,3 C 30,7 C 10,8 UV-I 4,6 C 62 % 58 % 100 % 1020,8 hPa 0,0 l/m 6,8 km/h (2 Bft) 2 min 0,0 km/h (0 Bft)
11.07.2010 13:22 28,2 C 30,8 C 10,6 UV-I 4,7 C 62 % 58 % 100 % 1020,8 hPa 0,0 l/m 6,4 km/h (2 Bft) 2 min 7,1 km/h (2 Bft)
11.07.2010 13:24 28,4 C 30,9 C 10,6 UV-I 4,9 C 62 % 58 % 100 % 1020,8 hPa 0,0 l/m 5,2 km/h (1 Bft) 2 min 5,5 km/h (1 Bft)
11.07.2010 13:26 28,4 C 31,1 C 10,9 UV-I 4,9 C 62 % 58 % 100 % 1020,8 hPa 0,0 l/m 5,2 km/h (1 Bft) 2 min 13,2 km/h (3 Bft)
11.07.2010 13:28 28,4 C 31,1 C 10,9 UV-I 4,9 C 62 % 58 % 100 % 1020,8 hPa 0,0 l/m 6,4 km/h (2 Bft) 2 min 5,1 km/h (1 Bft)
11.07.2010 13:30 28,4 C 31,2 C 10,2 UV-I 4,9 C 61 % 57 % 100 % 1020,5 hPa 0,0 l/m 6,0 km/h (2 Bft) 2 min 6,4 km/h (2 Bft)
11.07.2010 13:32 28,4 C 31,3 C 10,2 UV-I 4,9 C 61 % 56 % 100 % 1020,5 hPa 0,0 l/m 7,2 km/h (2 Bft) 2 min 5,5 km/h (1 Bft)
11.07.2010 13:34 28,4 C 31,3 C 10,2 UV-I 4,7 C 61 % 57 % 100 % 1020,5 hPa 0,0 l/m 6,4 km/h (2 Bft) 2 min 0,0 km/h (0 Bft)
11.07.2010 13:36 28,4 C 31,2 C 10,4 UV-I 4,7 C 61 % 58 % 100 % 1020,5 hPa 0,0 l/m 6,0 km/h (2 Bft) 2 min 5,1 km/h (1 Bft)
11.07.2010 13:38 28,5 C 31,3 C 10,4 UV-I 4,8 C 61 % 56 % 100 % 1020,5 hPa 0,0 l/m 5,2 km/h (1 Bft) 2 min 3,9 km/h (1 Bft)
11.07.2010 13:40 28,5 C 31,1 C 10,4 UV-I 5,0 C 61 % 56 % 100 % 1020,5 hPa 0,0 l/m 4,4 km/h (1 Bft) 2 min 0,0 km/h (0 Bft)
11.07.2010 13:42 28,5 C 30,9 C 6,7 UV-I 4,6 C 61 % 56 % 100 % 1020,5 hPa 0,0 l/m 3,2 km/h (1 Bft) 2 min 5,5 km/h (1 Bft)
11.07.2010 13:44 28,5 C 30,8 C 6,7 UV-I 4,1 C 61 % 57 % 100 % 1020,5 hPa 0,0 l/m 3,6 km/h (1 Bft) 2 min 4,2 km/h (1 Bft)
11.07.2010 13:46 28,6 C 30,8 C 6,7 UV-I 3,4 C 61 % 57 % 97 % 1020,5 hPa 0,0 l/m 4,4 km/h (1 Bft) 2 min 9,7 km/h (2 Bft)
11.07.2010 13:48 28,6 C 30,8 C 8,1 UV-I 3,1 C 61 % 57 % 89 % 1020,5 hPa 0,0 l/m 4,4 km/h (1 Bft) 2 min 7,7 km/h (2 Bft)
11.07.2010 13:50 28,6 C 31,0 C 8,1 UV-I 3,2 C 61 % 59 % 91 % 1020,4 hPa 0,0 l/m 4,8 km/h (1 Bft) 2 min 7,7 km/h (2 Bft)
11.07.2010 13:54 28,6 C 31,3 C 8,6 UV-I 2,9 C 61 % 57 % 83 % 1020,4 hPa 0,0 l/m 4,4 km/h (1 Bft) 2 min 3,9 km/h (1 Bft)
11.07.2010 13:56 28,6 C 31,4 C 8,6 UV-I 3,1 C 60 % 57 % 89 % 1020,4 hPa 0,0 l/m 4,0 km/h (1 Bft) 2 min 0,0 km/h (0 Bft)
11.07.2010 13:58 28,7 C 31,5 C 10,8 UV-I 4,0 C 60 % 56 % 100 % 1020,4 hPa 0,0 l/m 3,2 km/h (1 Bft) 2 min 0,0 km/h (0 Bft)
11.07.2010 14:00 28,7 C 31,6 C 10,8 UV-I 3,9 C 60 % 55 % 100 % 1020,4 hPa 0,0 l/m 3,2 km/h (1 Bft) 2 min 0,0 km/h (0 Bft)
11.07.2010 14:02 28,7 C 31,8 C 10,9 UV-I 4,2 C 60 % 54 % 100 % 1020,4 hPa 0,0 l/m 3,2 km/h (1 Bft) 2 min 9,3 km/h (2 Bft)
11.07.2010 14:04 28,8 C 31,8 C 10,9 UV-I 4,5 C 60 % 54 % 100 % 1020,4 hPa 0,0 l/m 4,4 km/h (1 Bft) 2 min 4,8 km/h (1 Bft)
11.07.2010 14:06 28,8 C 31,8 C 10,9 UV-I 4,5 C 60 % 54 % 100 % 1020,4 hPa 0,0 l/m 4,8 km/h (1 Bft) 2 min 6,4 km/h (2 Bft)
11.07.2010 14:08 28,8 C 31,8 C 10,9 UV-I 4,5 C 60 % 54 % 100 % 1020,4 hPa 0,0 l/m 6,4 km/h (2 Bft) 2 min 8,0 km/h (2 Bft)
11.07.2010 14:10 28,8 C 31,9 C 10,7 UV-I 4,5 C 60 % 54 % 100 % 1020,4 hPa 0,0 l/m 7,2 km/h (2 Bft) 2 min 14,5 km/h (3 Bft)
11.07.2010 14:12 28,8 C 32,0 C 10,7 UV-I 4,4 C 60 % 53 % 100 % 1020,4 hPa 0,0 l/m 7,2 km/h (2 Bft) 2 min 14,5 km/h (3 Bft)
11.07.2010 14:14 28,9 C 32,0 C 10,7 UV-I 4,5 C 60 % 54 % 100 % 1020,4 hPa 0,0 l/m 6,8 km/h (2 Bft) 2 min 10,0 km/h (2 Bft)
11.07.2010 14:16 29,0 C 32,1 C 11,1 UV-I 4,6 C 60 % 54 % 100 % 1020,4 hPa 0,0 l/m 6,8 km/h (2 Bft) 2 min 11,3 km/h (2 Bft)
11.07.2010 14:18 29,0 C 32,1 C 11,1 UV-I 4,9 C 60 % 53 % 100 % 1020,4 hPa 0,0 l/m 5,6 km/h (1 Bft) 2 min 0,0 km/h (0 Bft)
11.07.2010 14:20 29,0 C 32,1 C 11,2 UV-I 5,2 C 60 % 53 % 100 % 1020,4 hPa 0,0 l/m 4,8 km/h (1 Bft) 2 min 10,3 km/h (2 Bft)
11.07.2010 14:22 29,1 C 32,3 C 11,2 UV-I 5,2 C 59 % 53 % 100 % 1020,4 hPa 0,0 l/m 4,8 km/h (1 Bft) 2 min 5,5 km/h (1 Bft)
11.07.2010 14:24 29,2 C 32,3 C 11,2 UV-I 5,4 C 59 % 53 % 100 % 1020,4 hPa 0,0 l/m 4,4 km/h (1 Bft) 2 min 8,4 km/h (2 Bft)
11.07.2010 14:26 29,2 C 32,3 C 10,0 UV-I 5,4 C 59 % 53 % 100 % 1020,4 hPa 0,0 l/m 4,4 km/h (1 Bft) 2 min 5,1 km/h (1 Bft)
11.07.2010 14:28 29,2 C 32,3 C 10,0 UV-I 5,2 C 59 % 53 % 100 % 1020,6 hPa 0,0 l/m 4,4 km/h (1 Bft) 2 min 7,1 km/h (2 Bft)
11.07.2010 14:30 29,2 C 32,3 C 10,1 UV-I 5,2 C 59 % 52 % 100 % 1020,6 hPa 0,0 l/m 4,4 km/h (1 Bft) 2 min 7,1 km/h (2 Bft)
11.07.2010 14:32 29,4 C 32,5 C 10,1 UV-I 5,0 C 59 % 51 % 100 % 1020,6 hPa 0,0 l/m 4,4 km/h (1 Bft) 2 min 0,0 km/h (0 Bft)
11.07.2010 14:34 29,5 C 32,4 C 10,1 UV-I 4,9 C 59 % 52 % 100 % 1020,6 hPa 0,0 l/m 5,2 km/h (1 Bft) 2 min 16,1 km/h (3 Bft)
11.07.2010 14:36 29,6 C 32,6 C 10,6 UV-I 4,6 C 58 % 52 % 100 % 1020,6 hPa 0,0 l/m 6,0 km/h (2 Bft) 2 min 17,4 km/h (3 Bft)
11.07.2010 14:38 29,6 C 32,6 C 10,6 UV-I 4,6 C 58 % 51 % 100 % 1020,6 hPa 0,0 l/m 7,2 km/h (2 Bft) 2 min 5,8 km/h (2 Bft)
11.07.2010 14:40 29,7 C 32,7 C 10,8 UV-I 4,9 C 58 % 52 % 100 % 1020,6 hPa 0,0 l/m 6,4 km/h (2 Bft) 2 min 5,1 km/h (1 Bft)
11.07.2010 14:42 29,8 C 32,7 C 10,8 UV-I 4,9 C 58 % 52 % 100 % 1020,6 hPa 0,0 l/m 6,4 km/h (2 Bft) 2 min 5,1 km/h (1 Bft)
11.07.2010 14:46 29,8 C 32,6 C 10,8 UV-I 5,0 C 57 % 52 % 100 % 1020,6 hPa 0,0 l/m 4,4 km/h (1 Bft) 2 min 0,0 km/h (0 Bft)
11.07.2010 14:48 29,8 C 32,6 C 8,6 UV-I 4,8 C 57 % 52 % 100 % 1020,6 hPa 0,0 l/m 2,8 km/h (1 Bft) 2 min 8,7 km/h (2 Bft)
11.07.2010 14:50 29,9 C 32,5 C 7,9 UV-I 4,7 C 57 % 51 % 100 % 1020,9 hPa 0,0 l/m 2,4 km/h (1 Bft) 2 min 4,8 km/h (1 Bft)
11.07.2010 14:54 29,9 C 32,4 C 7,9 UV-I 3,9 C 57 % 50 % 100 % 1020,9 hPa 0,0 l/m 2,8 km/h (1 Bft) 2 min 4,2 km/h (1 Bft)
11.07.2010 14:56 30,0 C 32,5 C 9,7 UV-I 3,7 C 57 % 53 % 100 % 1020,9 hPa 0,0 l/m 3,2 km/h (1 Bft) 2 min 6,8 km/h (2 Bft)
11.07.2010 14:58 30,0 C 32,5 C 9,7 UV-I 3,8 C 56 % 51 % 100 % 1020,9 hPa 0,0 l/m 4,0 km/h (1 Bft) 2 min 7,4 km/h (2 Bft)
11.07.2010 15:02 30,0 C 32,3 C 6,1 UV-I 3,7 C 56 % 50 % 100 % 1020,9 hPa 0,0 l/m 4,4 km/h (1 Bft) 2 min 3,2 km/h (1 Bft)
11.07.2010 15:04 30,0 C 32,3 C 6,1 UV-I 3,2 C 56 % 51 % 91 % 1020,9 hPa 0,0 l/m 4,0 km/h (1 Bft) 2 min 0,0 km/h (0 Bft)
11.07.2010 15:06 30,1 C 32,3 C 6,9 UV-I 2,9 C 56 % 52 % 83 % 1020,9 hPa 0,0 l/m 3,6 km/h (1 Bft) 2 min 4,5 km/h (1 Bft)
11.07.2010 15:08 30,1 C 32,3 C 6,9 UV-I 2,6 C 56 % 52 % 74 % 1020,9 hPa 0,0 l/m 2,4 km/h (1 Bft) 0 min 0,0 km/h (0 Bft)
11.07.2010 15:10 30,1 C 32,3 C 8,7 UV-I 2,8 C 56 % 50 % 80 % 1020,9 hPa 0,0 l/m 2,0 km/h (1 Bft) 0 min 0,0 km/h (0 Bft)
11.07.2010 15:12 30,1 C 32,3 C 8,7 UV-I 3,1 C 56 % 51 % 89 % 1020,9 hPa 0,0 l/m 2,4 km/h (1 Bft) 2 min 9,7 km/h (2 Bft)
11.07.2010 15:14 30,2 C 32,2 C 8,7 UV-I 3,2 C 56 % 52 % 91 % 1020,9 hPa 0,0 l/m 2,4 km/h (1 Bft) 2 min 9,7 km/h (2 Bft)
11.07.2010 15:16 30,2 C 32,3 C 7,9 UV-I 3,1 C 56 % 52 % 89 % 1020,9 hPa 0,0 l/m 4,0 km/h (1 Bft) 2 min 12,2 km/h (2 Bft)
11.07.2010 15:18 30,2 C 32,4 C 7,9 UV-I 2,7 C 56 % 52 % 77 % 1020,9 hPa 0,0 l/m 5,2 km/h (1 Bft) 0 min 4,8 km/h (1 Bft)
11.07.2010 15:20 30,2 C 32,5 C 8,5 UV-I 2,5 C 56 % 52 % 71 % 1020,9 hPa 0,0 l/m 5,2 km/h (1 Bft) 0 min 0,0 km/h (0 Bft)
11.07.2010 15:22 30,3 C 32,5 C 8,5 UV-I 2,5 C 56 % 52 % 71 % 1020,9 hPa 0,0 l/m 5,2 km/h (1 Bft) 0 min 0,0 km/h (0 Bft)
11.07.2010 15:24 30,3 C 32,5 C 8,5 UV-I 3,0 C 56 % 51 % 86 % 1020,9 hPa 0,0 l/m 4,8 km/h (1 Bft) 2 min 4,2 km/h (1 Bft)
11.07.2010 15:26 30,2 C 32,5 C 6,8 UV-I 3,2 C 56 % 51 % 91 % 1020,9 hPa 0,0 l/m 4,0 km/h (1 Bft) 2 min 4,8 km/h (1 Bft)
11.07.2010 15:28 30,2 C 32,5 C 6,8 UV-I 3,1 C 56 % 51 % 89 % 1020,9 hPa 0,0 l/m 3,2 km/h (1 Bft) 2 min 4,2 km/h (1 Bft)
11.07.2010 15:30 30,4 C 32,3 C 6,8 UV-I 3,0 C 55 % 50 % 86 % 1020,3 hPa 0,0 l/m 3,2 km/h (1 Bft) 2 min 6,4 km/h (2 Bft)
11.07.2010 15:32 30,2 C 32,2 C 7,6 UV-I 2,9 C 55 % 50 % 83 % 1020,3 hPa 0,0 l/m 3,6 km/h (1 Bft) 2 min 0,0 km/h (0 Bft)
11.07.2010 15:34 30,4 C 32,4 C 7,6 UV-I 2,6 C 55 % 49 % 74 % 1020,3 hPa 0,0 l/m 3,2 km/h (1 Bft) 0 min 4,5 km/h (1 Bft)
11.07.2010 15:36 30,4 C 32,4 C 9,2 UV-I 2,6 C 55 % 50 % 74 % 1020,3 hPa 0,0 l/m 3,2 km/h (1 Bft) 0 min 0,0 km/h (0 Bft)
11.07.2010 15:38 30,4 C 32,5 C 9,2 UV-I 2,9 C 55 % 51 % 83 % 1020,3 hPa 0,0 l/m 3,2 km/h (1 Bft) 2 min 8,4 km/h (2 Bft)
11.07.2010 15:40 30,4 C 32,4 C 9,2 UV-I 3,5 C 55 % 50 % 100 % 1020,3 hPa 0,0 l/m 3,2 km/h (1 Bft) 2 min 4,2 km/h (1 Bft)
11.07.2010 15:42 30,5 C 32,4 C 6,3 UV-I 3,3 C 55 % 48 % 94 % 1020,3 hPa 0,0 l/m 2,4 km/h (1 Bft) 2 min 0,0 km/h (0 Bft)
11.07.2010 15:44 30,5 C 32,5 C 6,3 UV-I 3,0 C 55 % 48 % 86 % 1020,3 hPa 0,0 l/m 3,2 km/h (1 Bft) 2 min 6,4 km/h (2 Bft)
11.07.2010 15:46 30,6 C 32,7 C 6,3 UV-I 2,9 C 55 % 49 % 83 % 1020,3 hPa 0,0 l/m 3,6 km/h (1 Bft) 2 min 4,2 km/h (1 Bft)
11.07.2010 15:48 30,6 C 32,7 C 10,9 UV-I 3,5 C 55 % 49 % 100 % 1020,3 hPa 0,0 l/m 4,0 km/h (1 Bft) 2 min 4,5 km/h (1 Bft)
11.07.2010 15:52 30,7 C 32,7 C 7,6 UV-I 3,9 C 54 % 48 % 100 % 1021,2 hPa 0,0 l/m 3,6 km/h (1 Bft) 2 min 4,2 km/h (1 Bft)
11.07.2010 15:54 30,7 C 32,9 C 7,6 UV-I 3,4 C 54 % 49 % 97 % 1021,2 hPa 0,0 l/m 2,4 km/h (1 Bft) 2 min 0,0 km/h (0 Bft)
11.07.2010 15:56 30,7 C 33,0 C 7,6 UV-I 3,3 C 54 % 48 % 94 % 1021,2 hPa 0,0 l/m 2,4 km/h (1 Bft) 2 min 0,0 km/h (0 Bft)
11.07.2010 15:58 30,8 C 33,0 C 10,6 UV-I 3,7 C 54 % 47 % 100 % 1021,2 hPa 0,0 l/m 2,0 km/h (1 Bft) 2 min 0,0 km/h (0 Bft)
11.07.2010 16:00 30,8 C 33,0 C 10,6 UV-I 4,0 C 54 % 47 % 100 % 1021,2 hPa 0,0 l/m 2,4 km/h (1 Bft) 2 min 4,5 km/h (1 Bft)
11.07.2010 16:02 30,8 C 33,0 C 8,6 UV-I 4,3 C 53 % 48 % 100 % 1021,2 hPa 0,0 l/m 2,4 km/h (1 Bft) 2 min 3,9 km/h (1 Bft)
11.07.2010 16:04 30,9 C 33,1 C 8,6 UV-I 4,0 C 53 % 47 % 100 % 1021,2 hPa 0,0 l/m 3,2 km/h (1 Bft) 2 min 7,4 km/h (2 Bft)
11.07.2010 16:06 31,0 C 33,1 C 10,3 UV-I 3,8 C 53 % 48 % 100 % 1021,2 hPa 0,0 l/m 4,0 km/h (1 Bft) 2 min 6,1 km/h (2 Bft)
11.07.2010 16:08 31,0 C 33,1 C 10,3 UV-I 4,1 C 53 % 48 % 100 % 1021,2 hPa 0,0 l/m 3,2 km/h (1 Bft) 2 min 0,0 km/h (0 Bft)
11.07.2010 16:12 31,0 C 33,1 C 8,0 UV-I 3,8 C 53 % 47 % 100 % 1021,8 hPa 0,0 l/m 3,2 km/h (1 Bft) 2 min 0,0 km/h (0 Bft)
11.07.2010 16:14 31,0 C 33,1 C 8,0 UV-I 3,8 C 53 % 47 % 100 % 1021,8 hPa 0,0 l/m 3,2 km/h (1 Bft) 2 min 0,0 km/h (0 Bft)
11.07.2010 16:16 31,0 C 33,0 C 8,3 UV-I 3,5 C 53 % 46 % 100 % 1021,8 hPa 0,0 l/m 2,4 km/h (1 Bft) 2 min 6,1 km/h (2 Bft)
11.07.2010 16:18 31,0 C 33,1 C 8,3 UV-I 3,1 C 53 % 48 % 89 % 1021,8 hPa 0,0 l/m 3,2 km/h (1 Bft) 2 min 6,4 km/h (2 Bft)
11.07.2010 16:20 31,1 C 33,1 C 8,3 UV-I 3,2 C 53 % 48 % 91 % 1021,8 hPa 0,0 l/m 3,2 km/h (1 Bft) 2 min 0,0 km/h (0 Bft)
11.07.2010 16:22 31,1 C 33,0 C 8,0 UV-I 3,4 C 53 % 47 % 97 % 1021,8 hPa 0,0 l/m 2,8 km/h (1 Bft) 2 min 6,1 km/h (2 Bft)
11.07.2010 16:24 31,1 C 33,1 C 8,0 UV-I 3,1 C 52 % 47 % 89 % 1021,8 hPa 0,0 l/m 2,8 km/h (1 Bft) 2 min 0,0 km/h (0 Bft)
11.07.2010 16:26 31,1 C 33,1 C 9,4 UV-I 3,0 C 53 % 47 % 86 % 1021,8 hPa 0,0 l/m 2,4 km/h (1 Bft) 2 min 4,8 km/h (1 Bft)
11.07.2010 16:28 31,1 C 33,1 C 9,4 UV-I 3,5 C 53 % 47 % 100 % 1021,8 hPa 0,0 l/m 2,0 km/h (1 Bft) 2 min 6,8 km/h (2 Bft)
11.07.2010 16:30 31,2 C 33,5 C 12,4 UV-I 3,7 C 52 % 49 % 100 % 1020,5 hPa 0,0 l/m 2,8 km/h (1 Bft) 2 min 8,7 km/h (2 Bft)
11.07.2010 16:32 31,2 C 33,7 C 12,4 UV-I 3,5 C 52 % 47 % 100 % 1020,5 hPa 0,0 l/m 2,8 km/h (1 Bft) 2 min 8,7 km/h (2 Bft)
11.07.2010 16:34 31,2 C 33,9 C 12,4 UV-I 4,3 C 52 % 46 % 100 % 1020,5 hPa 0,0 l/m 2,8 km/h (1 Bft) 2 min 0,0 km/h (0 Bft)
11.07.2010 16:38 31,4 C 34,1 C 12,3 UV-I 4,6 C 52 % 46 % 100 % 1020,5 hPa 0,0 l/m 2,4 km/h (1 Bft) 2 min 4,2 km/h (1 Bft)
11.07.2010 16:40 31,4 C 34,1 C 10,5 UV-I 4,7 C 52 % 44 % 100 % 1020,5 hPa 0,0 l/m 2,4 km/h (1 Bft) 2 min 0,0 km/h (0 Bft)
11.07.2010 16:42 31,5 C 34,2 C 10,5 UV-I 4,4 C 52 % 45 % 100 % 1020,5 hPa 0,0 l/m 1,6 km/h (1 Bft) 2 min 4,5 km/h (1 Bft)
11.07.2010 16:44 31,5 C 34,4 C 10,5 UV-I 4,4 C 52 % 44 % 100 % 1020,5 hPa 0,0 l/m 1,2 km/h (1 Bft) 2 min 0,0 km/h (0 Bft)
11.07.2010 16:48 31,6 C 34,4 C 13,6 UV-I 5,1 C 51 % 45 % 100 % 1020,5 hPa 0,0 l/m 2,0 km/h (1 Bft) 2 min 0,0 km/h (0 Bft)
11.07.2010 16:50 31,7 C 34,5 C 13,5 UV-I 5,1 C 51 % 43 % 100 % 1022,2 hPa 0,0 l/m 3,2 km/h (1 Bft) 2 min 7,4 km/h (2 Bft)
11.07.2010 16:52 31,7 C 34,4 C 13,5 UV-I 5,5 C 51 % 43 % 100 % 1022,2 hPa 0,0 l/m 3,6 km/h (1 Bft) 2 min 6,1 km/h (2 Bft)
11.07.2010 16:54 31,7 C 34,2 C 13,5 UV-I 5,7 C 51 % 43 % 100 % 1022,2 hPa 0,0 l/m 3,6 km/h (1 Bft) 2 min 6,1 km/h (2 Bft)
11.07.2010 16:58 31,8 C 34,1 C 8,8 UV-I 4,7 C 51 % 44 % 100 % 1022,2 hPa 0,0 l/m 3,2 km/h (1 Bft) 2 min 3,9 km/h (1 Bft)
11.07.2010 17:02 31,8 C 34,0 C 8,5 UV-I 4,8 C 51 % 43 % 100 % 1022,2 hPa 0,0 l/m 2,8 km/h (1 Bft) 2 min 3,2 km/h (1 Bft)
11.07.2010 17:04 31,8 C 34,1 C 8,5 UV-I 3,7 C 51 % 43 % 100 % 1022,2 hPa 0,0 l/m 1,2 km/h (1 Bft) 2 min 0,0 km/h (0 Bft)
11.07.2010 17:06 31,8 C 34,0 C 8,2 UV-I 3,5 C 51 % 42 % 100 % 1022,2 hPa 0,0 l/m 2,4 km/h (1 Bft) 2 min 4,5 km/h (1 Bft)
11.07.2010 17:08 31,8 C 34,0 C 8,2 UV-I 3,5 C 51 % 42 % 100 % 1022,2 hPa 0,0 l/m 2,4 km/h (1 Bft) 2 min 4,5 km/h (1 Bft)
11.07.2010 17:10 31,8 C 33,9 C 9,7 UV-I 3,1 C 50 % 42 % 89 % 1021,6 hPa 0,0 l/m 2,4 km/h (1 Bft) 2 min 5,8 km/h (2 Bft)
11.07.2010 17:12 31,8 C 33,9 C 9,7 UV-I 2,9 C 50 % 43 % 83 % 1021,6 hPa 0,0 l/m 3,2 km/h (1 Bft) 2 min 3,5 km/h (1 Bft)
11.07.2010 17:14 31,8 C 34,0 C 9,7 UV-I 3,3 C 50 % 42 % 94 % 1021,6 hPa 0,0 l/m 3,6 km/h (1 Bft) 2 min 3,5 km/h (1 Bft)
11.07.2010 17:16 31,8 C 34,3 C 13,3 UV-I 3,5 C 50 % 42 % 100 % 1021,6 hPa 0,0 l/m 3,2 km/h (1 Bft) 2 min 3,5 km/h (1 Bft)
11.07.2010 17:18 31,9 C 34,4 C 13,3 UV-I 3,8 C 50 % 42 % 100 % 1021,6 hPa 0,0 l/m 3,2 km/h (1 Bft) 2 min 7,4 km/h (2 Bft)
11.07.2010 17:22 31,9 C 34,4 C 13,1 UV-I 4,1 C 50 % 40 % 100 % 1021,6 hPa 0,0 l/m 4,4 km/h (1 Bft) 2 min 7,4 km/h (2 Bft)
11.07.2010 17:24 32,0 C 34,3 C 13,1 UV-I 4,2 C 49 % 40 % 100 % 1021,6 hPa 0,0 l/m 6,0 km/h (2 Bft) 2 min 8,4 km/h (2 Bft)
11.07.2010 17:26 32,0 C 34,3 C 12,9 UV-I 4,2 C 49 % 41 % 100 % 1021,6 hPa 0,0 l/m 6,0 km/h (2 Bft) 2 min 4,2 km/h (1 Bft)
11.07.2010 17:28 32,0 C 34,3 C 12,9 UV-I 4,5 C 49 % 41 % 100 % 1020,4 hPa 0,0 l/m 6,4 km/h (2 Bft) 2 min 5,5 km/h (1 Bft)
11.07.2010 17:30 32,1 C 34,4 C 12,3 UV-I 4,4 C 49 % 41 % 100 % 1020,4 hPa 0,0 l/m 6,4 km/h (2 Bft) 2 min 5,5 km/h (1 Bft)
11.07.2010 17:34 32,0 C 34,5 C 12,3 UV-I 4,4 C 49 % 41 % 100 % 1020,4 hPa 0,0 l/m 4,4 km/h (1 Bft) 2 min 6,8 km/h (2 Bft)
11.07.2010 17:38 32,2 C 34,6 C 7,7 UV-I 4,6 C 49 % 40 % 100 % 1020,4 hPa 0,0 l/m 4,0 km/h (1 Bft) 2 min 5,8 km/h (2 Bft)
11.07.2010 17:40 32,2 C 34,6 C 8,7 UV-I 4,5 C 48 % 42 % 100 % 1020,4 hPa 0,0 l/m 3,6 km/h (1 Bft) 2 min 0,0 km/h (0 Bft)
11.07.2010 17:42 32,2 C 34,5 C 8,7 UV-I 4,4 C 48 % 41 % 100 % 1020,4 hPa 0,0 l/m 4,4 km/h (1 Bft) 2 min 4,5 km/h (1 Bft)
11.07.2010 17:44 32,2 C 34,4 C 8,7 UV-I 4,4 C 48 % 40 % 100 % 1020,4 hPa 0,0 l/m 4,4 km/h (1 Bft) 2 min 4,5 km/h (1 Bft)
11.07.2010 17:46 32,3 C 34,4 C 9,2 UV-I 4,4 C 48 % 41 % 100 % 1020,4 hPa 0,0 l/m 3,6 km/h (1 Bft) 2 min 3,5 km/h (1 Bft)
11.07.2010 17:48 32,3 C 34,4 C 9,2 UV-I 4,4 C 48 % 41 % 100 % 1020,4 hPa 0,0 l/m 3,6 km/h (1 Bft) 2 min 3,5 km/h (1 Bft)
11.07.2010 17:52 32,2 C 34,6 C 8,8 UV-I 4,5 C 48 % 40 % 100 % 1020,9 hPa 0,0 l/m 2,0 km/h (1 Bft) 2 min 0,0 km/h (0 Bft)
11.07.2010 17:58 32,4 C 34,5 C 9,4 UV-I 4,7 C 48 % 39 % 100 % 1020,9 hPa 0,0 l/m 2,8 km/h (1 Bft) 2 min 8,0 km/h (2 Bft)
11.07.2010 18:00 32,4 C 34,5 C 6,6 UV-I 4,6 C 48 % 39 % 100 % 1020,9 hPa 0,0 l/m 2,4 km/h (1 Bft) 2 min 3,9 km/h (1 Bft)
11.07.2010 18:02 32,4 C 34,4 C 6,6 UV-I 4,8 C 48 % 40 % 100 % 1020,9 hPa 0,0 l/m 2,8 km/h (1 Bft) 2 min 0,0 km/h (0 Bft)
11.07.2010 18:04 32,4 C 34,5 C 6,6 UV-I 4,7 C 48 % 40 % 100 % 1020,9 hPa 0,0 l/m 2,8 km/h (1 Bft) 2 min 3,9 km/h (1 Bft)
11.07.2010 18:08 32,4 C 34,3 C 5,6 UV-I 4,9 C 48 % 41 % 100 % 1020,9 hPa 0,0 l/m 2,4 km/h (1 Bft) 2 min 9,3 km/h (2 Bft)
11.07.2010 18:10 32,4 C 34,1 C 5,6 UV-I 5,0 C 48 % 42 % 100 % 1020,4 hPa 0,0 l/m 2,4 km/h (1 Bft) 2 min 4,5 km/h (1 Bft)
11.07.2010 18:12 32,2 C 34,1 C 5,6 UV-I 5,0 C 48 % 41 % 100 % 1020,4 hPa 0,0 l/m 2,8 km/h (1 Bft) 2 min 3,9 km/h (1 Bft)
11.07.2010 18:14 32,2 C 34,1 C 5,6 UV-I 5,0 C 48 % 42 % 100 % 1020,4 hPa 0,0 l/m 2,8 km/h (1 Bft) 2 min 3,9 km/h (1 Bft)
11.07.2010 18:16 32,3 C 34,0 C 5,0 UV-I 4,9 C 48 % 42 % 100 % 1020,4 hPa 0,0 l/m 2,4 km/h (1 Bft) 2 min 0,0 km/h (0 Bft)
11.07.2010 18:18 32,3 C 34,1 C 5,0 UV-I 4,8 C 48 % 42 % 100 % 1020,4 hPa 0,0 l/m 2,0 km/h (1 Bft) 2 min 3,2 km/h (1 Bft)
11.07.2010 18:24 32,2 C 33,9 C 5,0 UV-I 4,9 C 48 % 41 % 100 % 1020,4 hPa 0,0 l/m 1,2 km/h (1 Bft) 2 min 5,1 km/h (1 Bft)
11.07.2010 18:26 32,0 C 33,8 C 3,9 UV-I 4,4 C 48 % 41 % 100 % 1020,4 hPa 0,0 l/m 1,2 km/h (1 Bft) 2 min 0,0 km/h (0 Bft)
11.07.2010 18:28 32,0 C 33,8 C 3,9 UV-I 3,8 C 48 % 41 % 100 % 1020,4 hPa 0,0 l/m 1,6 km/h (1 Bft) 2 min 3,5 km/h (1 Bft)
11.07.2010 18:30 32,1 C 33,7 C 3,8 UV-I 3,1 C 48 % 41 % 89 % 1020,2 hPa 0,0 l/m 1,6 km/h (1 Bft) 2 min 3,5 km/h (1 Bft)
11.07.2010 18:36 32,0 C 33,6 C 3,8 UV-I 2,4 C 48 % 42 % 69 % 1020,2 hPa 0,0 l/m 1,6 km/h (1 Bft) 0 min 3,5 km/h (1 Bft)
11.07.2010 18:38 32,0 C 33,6 C 3,8 UV-I 2,4 C 48 % 42 % 69 % 1020,2 hPa 0,0 l/m 1,6 km/h (1 Bft) 0 min 0,0 km/h (0 Bft)
11.07.2010 18:40 31,9 C 33,6 C 3,5 UV-I 2,3 C 48 % 41 % 66 % 1020,2 hPa 0,0 l/m 1,2 km/h (1 Bft) 0 min 3,9 km/h (1 Bft)
11.07.2010 18:42 31,9 C 33,5 C 3,5 UV-I 2,1 C 48 % 42 % 60 % 1020,2 hPa 0,0 l/m 1,2 km/h (1 Bft) 0 min 0,0 km/h (0 Bft)
11.07.2010 18:44 31,8 C 33,5 C 3,5 UV-I 1,8 C 48 % 42 % 51 % 1020,2 hPa 0,0 l/m 1,6 km/h (1 Bft) 0 min 5,5 km/h (1 Bft)
11.07.2010 18:46 31,8 C 33,5 C 3,5 UV-I 1,7 C 48 % 43 % 49 % 1020,2 hPa 0,0 l/m 1,2 km/h (1 Bft) 0 min 0,0 km/h (0 Bft)
11.07.2010 18:48 31,8 C 33,5 C 3,5 UV-I 1,7 C 48 % 43 % 49 % 1020,2 hPa 0,0 l/m 1,2 km/h (1 Bft) 0 min 0,0 km/h (0 Bft)
11.07.2010 18:50 31,7 C 33,4 C 3,4 UV-I 1,7 C 48 % 42 % 49 % 1019,9 hPa 0,0 l/m 1,6 km/h (1 Bft) 0 min 3,2 km/h (1 Bft)
11.07.2010 18:54 31,7 C 33,3 C 3,4 UV-I 1,8 C 49 % 42 % 51 % 1019,9 hPa 0,0 l/m 1,6 km/h (1 Bft) 0 min 3,2 km/h (1 Bft)
11.07.2010 18:56 31,6 C 33,3 C 3,3 UV-I 1,9 C 49 % 42 % 54 % 1019,9 hPa 0,0 l/m 1,6 km/h (1 Bft) 0 min 6,4 km/h (2 Bft)
11.07.2010 18:58 31,6 C 33,3 C 3,3 UV-I 1,8 C 49 % 43 % 51 % 1019,9 hPa 0,0 l/m 2,0 km/h (1 Bft) 0 min 0,0 km/h (0 Bft)
11.07.2010 19:03 31,5 C 33,2 C 3,2 UV-I 1,6 C 49 % 42 % 46 % 1019,9 hPa 0,0 l/m 1,2 km/h (1 Bft) 0 min 3,9 km/h (1 Bft)
11.07.2010 19:08 31,4 C 33,2 C 3,2 UV-I 1,1 C 49 % 42 % 31 % 1019,2 hPa 0,0 l/m 2,0 km/h (1 Bft) 0 min 0,0 km/h (0 Bft)
11.07.2010 19:13 31,4 C 33,2 C 3,2 UV-I 0,8 C 49 % 43 % 23 % 1019,2 hPa 0,0 l/m 2,4 km/h (1 Bft) 0 min 0,0 km/h (0 Bft)
11.07.2010 19:18 31,2 C 33,3 C 3,2 UV-I 0,4 C 49 % 43 % 11 % 1019,2 hPa 0,0 l/m 0,8 km/h (0 Bft) 0 min 0,0 km/h (0 Bft)
11.07.2010 19:23 31,2 C 33,1 C 2,7 UV-I 0,4 C 49 % 43 % 11 % 1019,2 hPa 0,0 l/m 1,6 km/h (1 Bft) 0 min 7,4 km/h (2 Bft)
11.07.2010 19:28 31,1 C 33,1 C 2,4 UV-I 0,0 C 50 % 43 % 0 % 1019,2 hPa 0,0 l/m 2,8 km/h (1 Bft) 0 min 0,0 km/h (0 Bft)
11.07.2010 19:33 31,0 C 33,0 C 2,4 UV-I 0,1 C 50 % 43 % 3 % 1019,2 hPa 0,0 l/m 2,4 km/h (1 Bft) 0 min 0,0 km/h (0 Bft)
11.07.2010 19:39 31,0 C 33,0 C 2,1 UV-I 0,0 C 50 % 43 % 0 % 1019,2 hPa 0,0 l/m 2,0 km/h (1 Bft) 0 min 3,9 km/h (1 Bft)
11.07.2010 19:40 31,0 C 33,0 C 1,4 UV-I 0,0 C 50 % 43 % 0 % 1019,2 hPa 0,0 l/m 2,0 km/h (1 Bft) 0 min 3,9 km/h (1 Bft)
11.07.2010 19:42 30,9 C 32,9 C 1,4 UV-I 0,0 C 50 % 43 % 0 % 1019,2 hPa 0,0 l/m 1,6 km/h (1 Bft) 0 min 0,0 km/h (0 Bft)
11.07.2010 19:44 30,9 C 32,9 C 1,4 UV-I 0,0 C 50 % 43 % 0 % 1019,2 hPa 0,0 l/m 1,2 km/h (1 Bft) 0 min 0,0 km/h (0 Bft)
11.07.2010 19:46 30,9 C 32,9 C 1,2 UV-I 0,0 C 50 % 43 % 0 % 1019,2 hPa 0,0 l/m 0,8 km/h (0 Bft) 0 min 0,0 km/h (0 Bft)
11.07.2010 19:48 30,9 C 32,9 C 1,2 UV-I 0,0 C 50 % 43 % 0 % 1019,2 hPa 0,0 l/m 0,4 km/h (0 Bft) 0 min 0,0 km/h (0 Bft)
11.07.2010 19:50 30,8 C 32,9 C 0,9 UV-I 0,0 C 50 % 44 % 0 % 1018,9 hPa 0,0 l/m 0,0 km/h (0 Bft) 0 min 0,0 km/h (0 Bft)
11.07.2010 19:52 30,8 C 32,8 C 0,9 UV-I 0,0 C 50 % 44 % 0 % 1018,9 hPa 0,0 l/m 0,8 km/h (0 Bft) 0 min 6,1 km/h (2 Bft)
11.07.2010 19:54 30,8 C 32,7 C 0,9 UV-I 0,0 C 50 % 44 % 0 % 1018,9 hPa 0,0 l/m 1,2 km/h (1 Bft) 0 min 8,0 km/h (2 Bft)
11.07.2010 19:56 30,7 C 32,7 C 1,0 UV-I 0,0 C 50 % 44 % 0 % 1018,9 hPa 0,0 l/m 2,0 km/h (1 Bft) 0 min 4,8 km/h (1 Bft)
11.07.2010 19:58 30,7 C 32,7 C 1,0 UV-I 0,0 C 50 % 44 % 0 % 1018,9 hPa 0,0 l/m 2,8 km/h (1 Bft) 0 min 5,1 km/h (1 Bft)
11.07.2010 20:00 30,7 C 32,7 C 1,1 UV-I 0,0 C 50 % 44 % 0 % 1018,9 hPa 0,0 l/m 3,2 km/h (1 Bft) 0 min 0,0 km/h (0 Bft)
11.07.2010 20:02 30,7 C 32,7 C 1,1 UV-I 0,0 C 51 % 44 % 0 % 1018,9 hPa 0,0 l/m 3,6 km/h (1 Bft) 0 min 3,9 km/h (1 Bft)
11.07.2010 20:04 30,7 C 32,5 C 1,1 UV-I 0,0 C 51 % 44 % 0 % 1018,9 hPa 0,0 l/m 2,4 km/h (1 Bft) 0 min 3,2 km/h (1 Bft)
11.07.2010 20:06 30,6 C 32,5 C 1,6 UV-I 0,0 C 51 % 44 % 0 % 1018,9 hPa 0,0 l/m 2,4 km/h (1 Bft) 0 min 0,0 km/h (0 Bft)
11.07.2010 20:08 30,6 C 32,5 C 1,6 UV-I 0,0 C 51 % 44 % 0 % 1018,9 hPa 0,0 l/m 1,6 km/h (1 Bft) 0 min 0,0 km/h (0 Bft)
11.07.2010 20:10 30,6 C 32,5 C 1,6 UV-I 0,0 C 51 % 44 % 0 % 1018,8 hPa 0,0 l/m 0,8 km/h (0 Bft) 0 min 0,0 km/h (0 Bft)
11.07.2010 20:12 30,6 C 32,4 C 1,6 UV-I 0,0 C 51 % 44 % 0 % 1018,8 hPa 0,0 l/m 0,4 km/h (0 Bft) 0 min 0,0 km/h (0 Bft)
11.07.2010 20:14 30,6 C 32,5 C 1,6 UV-I 0,0 C 51 % 44 % 0 % 1018,8 hPa 0,0 l/m 0,4 km/h (0 Bft) 0 min 0,0 km/h (0 Bft)
11.07.2010 20:16 30,6 C 32,5 C 0,8 UV-I 0,0 C 51 % 45 % 0 % 1018,8 hPa 0,0 l/m 0,4 km/h (0 Bft) 0 min 0,0 km/h (0 Bft)
11.07.2010 20:18 30,6 C 32,4 C 0,8 UV-I 0,0 C 51 % 45 % 0 % 1018,8 hPa 0,0 l/m 0,4 km/h (0 Bft) 0 min 0,0 km/h (0 Bft)
11.07.2010 20:20 30,5 C 32,3 C 0,6 UV-I 0,0 C 51 % 45 % 0 % 1018,8 hPa 0,0 l/m 0,4 km/h (0 Bft) 0 min 0,0 km/h (0 Bft)
11.07.2010 20:22 30,5 C 32,3 C 0,6 UV-I 0,0 C 51 % 46 % 0 % 1018,8 hPa 0,0 l/m 0,0 km/h (0 Bft) 0 min 0,0 km/h (0 Bft)
11.07.2010 20:24 30,5 C 32,3 C 0,6 UV-I 0,0 C 51 % 46 % 0 % 1018,8 hPa 0,0 l/m 0,0 km/h (0 Bft) 0 min 0,0 km/h (0 Bft)
11.07.2010 20:26 30,5 C 32,3 C 0,7 UV-I 0,0 C 51 % 46 % 0 % 1018,8 hPa 0,0 l/m 0,0 km/h (0 Bft) 0 min 0,0 km/h (0 Bft)
11.07.2010 20:28 30,5 C 32,3 C 0,7 UV-I 0,0 C 51 % 46 % 0 % 1018,8 hPa 0,0 l/m 0,0 km/h (0 Bft) 0 min 0,0 km/h (0 Bft)
11.07.2010 20:30 30,5 C 32,2 C 0,7 UV-I 0,0 C 51 % 47 % 0 % 1019,0 hPa 0,0 l/m 0,0 km/h (0 Bft) 0 min 0,0 km/h (0 Bft)
11.07.2010 20:34 30,4 C 32,1 C 0,7 UV-I 0,0 C 51 % 47 % 0 % 1019,0 hPa 0,0 l/m 0,0 km/h (0 Bft) 0 min 0,0 km/h (0 Bft)
11.07.2010 20:36 30,4 C 32,0 C 0,4 UV-I 0,0 C 51 % 46 % 0 % 1019,0 hPa 0,0 l/m 0,0 km/h (0 Bft) 0 min 0,0 km/h (0 Bft)
11.07.2010 20:38 30,4 C 32,0 C 0,4 UV-I 0,0 C 51 % 47 % 0 % 1019,0 hPa 0,0 l/m 0,0 km/h (0 Bft) 0 min 0,0 km/h (0 Bft)
11.07.2010 20:40 30,4 C 32,0 C 0,4 UV-I 0,0 C 51 % 47 % 0 % 1019,0 hPa 0,0 l/m 0,4 km/h (0 Bft) 0 min 4,8 km/h (1 Bft)
11.07.2010 20:42 30,4 C 31,9 C 0,4 UV-I 0,0 C 51 % 49 % 0 % 1019,0 hPa 0,0 l/m 0,8 km/h (0 Bft) 0 min 6,8 km/h (2 Bft)
11.07.2010 20:46 30,4 C 31,7 C 0,4 UV-I 0,0 C 52 % 54 % 0 % 1019,0 hPa 0,0 l/m 3,6 km/h (1 Bft) 0 min 12,2 km/h (2 Bft)
11.07.2010 20:48 30,4 C 31,7 C 0,3 UV-I 0,0 C 52 % 54 % 0 % 1019,0 hPa 0,0 l/m 6,0 km/h (2 Bft) 0 min 5,8 km/h (2 Bft)
11.07.2010 20:50 30,4 C 31,3 C 0,2 UV-I 0,0 C 52 % 56 % 0 % 1018,9 hPa 0,0 l/m 6,0 km/h (2 Bft) 0 min 5,8 km/h (2 Bft)
11.07.2010 20:52 30,4 C 31,1 C 0,2 UV-I 0,0 C 52 % 57 % 0 % 1018,9 hPa 0,0 l/m 6,8 km/h (2 Bft) 0 min 6,1 km/h (2 Bft)
11.07.2010 20:54 30,4 C 30,8 C 0,2 UV-I 0,0 C 52 % 57 % 0 % 1018,9 hPa 0,0 l/m 6,4 km/h (2 Bft) 0 min 6,4 km/h (2 Bft)
11.07.2010 20:58 30,3 C 30,7 C 0,0 UV-I 0,0 C 52 % 58 % 0 % 1018,9 hPa 0,0 l/m 5,6 km/h (1 Bft) 0 min 3,9 km/h (1 Bft)
11.07.2010 21:03 30,3 C 30,4 C 0,0 UV-I 0,0 C 52 % 60 % 0 % 1018,9 hPa 0,0 l/m 5,6 km/h (1 Bft) 0 min 7,7 km/h (2 Bft)
11.07.2010 21:10 30,2 C 29,9 C 0,1 UV-I 0,0 C 53 % 61 % 0 % 1019,4 hPa 0,0 l/m 6,0 km/h (2 Bft) 0 min 11,6 km/h (2 Bft)
11.07.2010 21:12 30,2 C 29,8 C 0,1 UV-I 0,0 C 53 % 62 % 0 % 1019,4 hPa 0,0 l/m 6,0 km/h (2 Bft) 0 min 11,6 km/h (2 Bft)
11.07.2010 21:14 30,2 C 29,7 C 0,1 UV-I 0,0 C 53 % 62 % 0 % 1019,4 hPa 0,0 l/m 6,4 km/h (2 Bft) 0 min 7,4 km/h (2 Bft)
11.07.2010 21:16 30,2 C 29,6 C 0,1 UV-I 0,0 C 53 % 63 % 0 % 1019,4 hPa 0,0 l/m 6,4 km/h (2 Bft) 0 min 9,0 km/h (2 Bft)
11.07.2010 21:18 30,2 C 29,6 C 0,1 UV-I 0,0 C 53 % 63 % 0 % 1019,4 hPa 0,0 l/m 7,6 km/h (2 Bft) 0 min 4,8 km/h (1 Bft)
11.07.2010 21:20 30,2 C 29,5 C 0,0 UV-I 0,0 C 53 % 63 % 0 % 1019,4 hPa 0,0 l/m 5,2 km/h (1 Bft) 0 min 6,8 km/h (2 Bft)
11.07.2010 21:22 30,2 C 29,4 C 0,0 UV-I 0,0 C 53 % 64 % 0 % 1019,4 hPa 0,0 l/m 6,0 km/h (2 Bft) 0 min 14,8 km/h (3 Bft)
11.07.2010 21:24 30,1 C 29,3 C 0,0 UV-I 0,0 C 54 % 64 % 0 % 1019,4 hPa 0,0 l/m 7,2 km/h (2 Bft) 0 min 8,4 km/h (2 Bft)
11.07.2010 21:26 30,1 C 29,2 C 0,0 UV-I 0,0 C 54 % 64 % 0 % 1019,4 hPa 0,0 l/m 7,2 km/h (2 Bft) 0 min 0,0 km/h (0 Bft)
11.07.2010 21:28 30,1 C 29,2 C 0,0 UV-I 0,0 C 54 % 64 % 0 % 1019,4 hPa 0,0 l/m 7,2 km/h (2 Bft) 0 min 7,7 km/h (2 Bft)
11.07.2010 21:30 30,1 C 29,1 C 0,0 UV-I 0,0 C 54 % 65 % 0 % 1019,4 hPa 0,0 l/m 7,6 km/h (2 Bft) 0 min 4,5 km/h (1 Bft)
11.07.2010 21:32 30,1 C 29,1 C 0,0 UV-I 0,0 C 54 % 65 % 0 % 1019,4 hPa 0,0 l/m 7,6 km/h (2 Bft) 0 min 15,8 km/h (3 Bft)
11.07.2010 21:34 30,1 C 28,9 C 0,0 UV-I 0,0 C 54 % 65 % 0 % 1019,4 hPa 0,0 l/m 6,0 km/h (2 Bft) 0 min 5,8 km/h (2 Bft)
11.07.2010 21:36 30,1 C 28,8 C 0,0 UV-I 0,0 C 54 % 65 % 0 % 1019,4 hPa 0,0 l/m 6,0 km/h (2 Bft) 0 min 7,1 km/h (2 Bft)
11.07.2010 21:38 30,1 C 28,8 C 0,0 UV-I 0,0 C 54 % 65 % 0 % 1019,4 hPa 0,0 l/m 6,4 km/h (2 Bft) 0 min 8,7 km/h (2 Bft)
11.07.2010 21:40 30,1 C 28,7 C 0,0 UV-I 0,0 C 54 % 66 % 0 % 1019,4 hPa 0,0 l/m 6,4 km/h (2 Bft) 0 min 4,2 km/h (1 Bft)
11.07.2010 21:42 30,0 C 28,7 C 0,0 UV-I 0,0 C 54 % 66 % 0 % 1019,4 hPa 0,0 l/m 6,8 km/h (2 Bft) 0 min 7,1 km/h (2 Bft)
11.07.2010 21:44 30,0 C 28,6 C 0,0 UV-I 0,0 C 54 % 66 % 0 % 1019,4 hPa 0,0 l/m 7,2 km/h (2 Bft) 0 min 15,1 km/h (3 Bft)
11.07.2010 21:46 30,0 C 28,5 C 0,0 UV-I 0,0 C 54 % 66 % 0 % 1019,4 hPa 0,0 l/m 6,8 km/h (2 Bft) 0 min 0,0 km/h (0 Bft)
11.07.2010 21:48 30,0 C 28,5 C 0,0 UV-I 0,0 C 54 % 66 % 0 % 1019,4 hPa 0,0 l/m 6,0 km/h (2 Bft) 0 min 3,9 km/h (1 Bft)
11.07.2010 21:50 30,0 C 28,4 C 0,0 UV-I 0,0 C 55 % 67 % 0 % 1019,7 hPa 0,0 l/m 5,6 km/h (1 Bft) 0 min 7,1 km/h (2 Bft)
11.07.2010 21:52 30,0 C 28,3 C 0,0 UV-I 0,0 C 55 % 67 % 0 % 1019,7 hPa 0,0 l/m 5,6 km/h (1 Bft) 0 min 11,3 km/h (2 Bft)
11.07.2010 21:54 30,0 C 28,3 C 0,0 UV-I 0,0 C 55 % 67 % 0 % 1019,7 hPa 0,0 l/m 5,6 km/h (1 Bft) 0 min 4,8 km/h (1 Bft)
11.07.2010 21:56 30,0 C 28,2 C 0,0 UV-I 0,0 C 55 % 68 % 0 % 1019,7 hPa 0,0 l/m 4,4 km/h (1 Bft) 0 min 7,1 km/h (2 Bft)
11.07.2010 21:58 30,0 C 28,1 C 0,0 UV-I 0,0 C 55 % 68 % 0 % 1019,7 hPa 0,0 l/m 4,4 km/h (1 Bft) 0 min 0,0 km/h (0 Bft)
11.07.2010 22:00 29,9 C 28,1 C 0,0 UV-I 0,0 C 55 % 68 % 0 % 1019,7 hPa 0,0 l/m 4,8 km/h (1 Bft) 0 min 11,9 km/h (2 Bft)
11.07.2010 22:02 29,9 C 28,1 C 0,0 UV-I 0,0 C 55 % 68 % 0 % 1019,7 hPa 0,0 l/m 4,8 km/h (1 Bft) 0 min 9,3 km/h (2 Bft)
11.07.2010 22:04 29,9 C 28,0 C 0,0 UV-I 0,0 C 55 % 68 % 0 % 1019,7 hPa 0,0 l/m 5,2 km/h (1 Bft) 0 min 3,5 km/h (1 Bft)
11.07.2010 22:06 29,9 C 27,9 C 0,0 UV-I 0,0 C 55 % 69 % 0 % 1019,7 hPa 0,0 l/m 4,8 km/h (1 Bft) 0 min 3,5 km/h (1 Bft)
11.07.2010 22:08 29,9 C 27,9 C 0,0 UV-I 0,0 C 55 % 69 % 0 % 1019,7 hPa 0,0 l/m 3,6 km/h (1 Bft) 0 min 0,0 km/h (0 Bft)
11.07.2010 22:10 29,9 C 27,7 C 0,0 UV-I 0,0 C 55 % 69 % 0 % 1019,8 hPa 0,0 l/m 3,6 km/h (1 Bft) 0 min 0,0 km/h (0 Bft)
11.07.2010 22:12 29,8 C 27,7 C 0,0 UV-I 0,0 C 55 % 69 % 0 % 1019,8 hPa 0,0 l/m 3,6 km/h (1 Bft) 0 min 4,2 km/h (1 Bft)
11.07.2010 22:14 29,8 C 27,6 C 0,0 UV-I 0,0 C 55 % 70 % 0 % 1019,8 hPa 0,0 l/m 3,2 km/h (1 Bft) 0 min 3,9 km/h (1 Bft)
11.07.2010 22:16 29,8 C 27,5 C 0,0 UV-I 0,0 C 55 % 70 % 0 % 1019,8 hPa 0,0 l/m 3,6 km/h (1 Bft) 0 min 4,5 km/h (1 Bft)
11.07.2010 22:18 29,8 C 27,5 C 0,0 UV-I 0,0 C 55 % 70 % 0 % 1019,8 hPa 0,0 l/m 4,4 km/h (1 Bft) 0 min 3,9 km/h (1 Bft)
11.07.2010 22:20 29,8 C 27,5 C 0,0 UV-I 0,0 C 55 % 70 % 0 % 1019,8 hPa 0,0 l/m 4,8 km/h (1 Bft) 0 min 0,0 km/h (0 Bft)
11.07.2010 22:22 29,8 C 27,5 C 0,0 UV-I 0,0 C 55 % 70 % 0 % 1019,8 hPa 0,0 l/m 4,0 km/h (1 Bft) 0 min 0,0 km/h (0 Bft)
11.07.2010 22:24 29,7 C 27,3 C 0,0 UV-I 0,0 C 56 % 70 % 0 % 1019,8 hPa 0,0 l/m 3,2 km/h (1 Bft) 0 min 0,0 km/h (0 Bft)
11.07.2010 22:26 29,7 C 27,3 C 0,0 UV-I 0,0 C 56 % 70 % 0 % 1019,8 hPa 0,0 l/m 2,8 km/h (1 Bft) 0 min 0,0 km/h (0 Bft)
11.07.2010 22:28 29,7 C 27,3 C 0,0 UV-I 0,0 C 56 % 70 % 0 % 1019,8 hPa 0,0 l/m 2,0 km/h (1 Bft) 0 min 0,0 km/h (0 Bft)
11.07.2010 22:30 29,7 C 27,2 C 0,0 UV-I 0,0 C 56 % 71 % 0 % 1019,9 hPa 0,0 l/m 1,6 km/h (1 Bft) 0 min 0,0 km/h (0 Bft)
11.07.2010 22:32 29,7 C 27,1 C 0,0 UV-I 0,0 C 56 % 71 % 0 % 1019,9 hPa 0,0 l/m 2,0 km/h (1 Bft) 0 min 3,9 km/h (1 Bft)
11.07.2010 22:34 29,7 C 27,1 C 0,0 UV-I 0,0 C 56 % 71 % 0 % 1019,9 hPa 0,0 l/m 1,6 km/h (1 Bft) 0 min 0,0 km/h (0 Bft)
11.07.2010 22:36 29,6 C 27,0 C 0,0 UV-I 0,0 C 56 % 72 % 0 % 1019,9 hPa 0,0 l/m 1,2 km/h (1 Bft) 0 min 0,0 km/h (0 Bft)
11.07.2010 22:38 29,6 C 27,0 C 0,0 UV-I 0,0 C 56 % 72 % 0 % 1019,9 hPa 0,0 l/m 1,2 km/h (1 Bft) 0 min 7,4 km/h (2 Bft)
11.07.2010 22:40 29,6 C 26,9 C 0,0 UV-I 0,0 C 56 % 72 % 0 % 1019,9 hPa 0,0 l/m 1,6 km/h (1 Bft) 0 min 6,1 km/h (2 Bft)
11.07.2010 22:42 29,6 C 26,9 C 0,0 UV-I 0,0 C 56 % 72 % 0 % 1019,9 hPa 0,0 l/m 1,6 km/h (1 Bft) 0 min 3,5 km/h (1 Bft)
11.07.2010 22:44 29,6 C 26,8 C 0,0 UV-I 0,0 C 56 % 73 % 0 % 1019,9 hPa 0,0 l/m 2,0 km/h (1 Bft) 0 min 19,0 km/h (3 Bft)
11.07.2010 22:46 29,6 C 26,9 C 0,0 UV-I 0,0 C 56 % 73 % 0 % 1019,9 hPa 0,0 l/m 3,2 km/h (1 Bft) 0 min 0,0 km/h (0 Bft)
11.07.2010 22:48 29,6 C 26,9 C 0,0 UV-I 0,0 C 56 % 73 % 0 % 1019,9 hPa 0,0 l/m 3,2 km/h (1 Bft) 0 min 0,0 km/h (0 Bft)
11.07.2010 22:50 29,5 C 26,7 C 0,0 UV-I 0,0 C 56 % 73 % 0 % 1019,9 hPa 0,0 l/m 2,8 km/h (1 Bft) 0 min 0,0 km/h (0 Bft)
11.07.2010 22:52 29,5 C 26,6 C 0,0 UV-I 0,0 C 56 % 73 % 0 % 1019,9 hPa 0,0 l/m 2,8 km/h (1 Bft) 0 min 5,5 km/h (1 Bft)
11.07.2010 22:54 29,5 C 26,7 C 0,0 UV-I 0,0 C 56 % 73 % 0 % 1019,9 hPa 0,0 l/m 3,6 km/h (1 Bft) 0 min 11,3 km/h (2 Bft)
11.07.2010 22:56 29,5 C 26,6 C 0,0 UV-I 0,0 C 56 % 73 % 0 % 1019,9 hPa 0,0 l/m 3,6 km/h (1 Bft) 0 min 7,1 km/h (2 Bft)
11.07.2010 22:58 29,4 C 26,5 C 0,0 UV-I 0,0 C 57 % 73 % 0 % 1019,9 hPa 0,0 l/m 4,0 km/h (1 Bft) 0 min 7,1 km/h (2 Bft)
11.07.2010 23:00 29,4 C 26,4 C 0,0 UV-I 0,0 C 57 % 73 % 0 % 1019,9 hPa 0,0 l/m 4,4 km/h (1 Bft) 0 min 3,2 km/h (1 Bft)
11.07.2010 23:02 29,4 C 26,4 C 0,0 UV-I 0,0 C 57 % 74 % 0 % 1019,9 hPa 0,0 l/m 4,0 km/h (1 Bft) 0 min 0,0 km/h (0 Bft)
11.07.2010 23:04 29,4 C 26,4 C 0,0 UV-I 0,0 C 57 % 74 % 0 % 1019,9 hPa 0,0 l/m 4,0 km/h (1 Bft) 0 min 0,0 km/h (0 Bft)
11.07.2010 23:06 29,4 C 26,3 C 0,0 UV-I 0,0 C 57 % 74 % 0 % 1019,9 hPa 0,0 l/m 3,2 km/h (1 Bft) 0 min 3,5 km/h (1 Bft)
11.07.2010 23:08 29,4 C 26,3 C 0,0 UV-I 0,0 C 57 % 74 % 0 % 1019,9 hPa 0,0 l/m 2,0 km/h (1 Bft) 0 min 0,0 km/h (0 Bft)
11.07.2010 23:10 29,4 C 26,2 C 0,0 UV-I 0,0 C 57 % 74 % 0 % 1020,1 hPa 0,0 l/m 1,6 km/h (1 Bft) 0 min 4,2 km/h (1 Bft)
11.07.2010 23:12 29,4 C 26,3 C 0,0 UV-I 0,0 C 57 % 74 % 0 % 1020,1 hPa 0,0 l/m 2,4 km/h (1 Bft) 0 min 5,1 km/h (1 Bft)
11.07.2010 23:14 29,2 C 26,1 C 0,0 UV-I 0,0 C 57 % 74 % 0 % 1020,1 hPa 0,0 l/m 3,6 km/h (1 Bft) 0 min 6,8 km/h (2 Bft)
11.07.2010 23:16 29,2 C 26,1 C 0,0 UV-I 0,0 C 57 % 74 % 0 % 1020,1 hPa 0,0 l/m 4,4 km/h (1 Bft) 0 min 9,7 km/h (2 Bft)
11.07.2010 23:18 29,2 C 26,0 C 0,0 UV-I 0,0 C 57 % 74 % 0 % 1020,1 hPa 0,0 l/m 5,2 km/h (1 Bft) 0 min 3,5 km/h (1 Bft)
11.07.2010 23:20 29,3 C 26,0 C 0,0 UV-I 0,0 C 57 % 75 % 0 % 1020,1 hPa 0,0 l/m 5,2 km/h (1 Bft) 0 min 4,2 km/h (1 Bft)
11.07.2010 23:22 29,2 C 25,9 C 0,0 UV-I 0,0 C 57 % 75 % 0 % 1020,1 hPa 0,0 l/m 5,6 km/h (1 Bft) 0 min 11,3 km/h (2 Bft)
11.07.2010 23:24 29,2 C 25,9 C 0,0 UV-I 0,0 C 57 % 75 % 0 % 1020,1 hPa 0,0 l/m 6,0 km/h (2 Bft) 0 min 6,8 km/h (2 Bft)
11.07.2010 23:26 29,2 C 25,8 C 0,0 UV-I 0,0 C 57 % 75 % 0 % 1020,1 hPa 0,0 l/m 6,0 km/h (2 Bft) 0 min 7,7 km/h (2 Bft)
11.07.2010 23:28 29,2 C 25,8 C 0,0 UV-I 0,0 C 57 % 75 % 0 % 1020,1 hPa 0,0 l/m 5,6 km/h (1 Bft) 0 min 4,2 km/h (1 Bft)
11.07.2010 23:30 29,2 C 25,6 C 0,0 UV-I 0,0 C 57 % 75 % 0 % 1019,9 hPa 0,0 l/m 6,0 km/h (2 Bft) 0 min 0,0 km/h (0 Bft)
11.07.2010 23:32 29,2 C 25,6 C 0,0 UV-I 0,0 C 58 % 75 % 0 % 1019,9 hPa 0,0 l/m 6,8 km/h (2 Bft) 0 min 9,3 km/h (2 Bft)
11.07.2010 23:34 29,2 C 25,5 C 0,0 UV-I 0,0 C 58 % 75 % 0 % 1019,9 hPa 0,0 l/m 6,8 km/h (2 Bft) 0 min 7,7 km/h (2 Bft)
11.07.2010 23:36 29,2 C 25,5 C 0,0 UV-I 0,0 C 58 % 75 % 0 % 1019,9 hPa 0,0 l/m 6,0 km/h (2 Bft) 0 min 3,5 km/h (1 Bft)
11.07.2010 23:38 29,1 C 25,4 C 0,0 UV-I 0,0 C 58 % 75 % 0 % 1019,9 hPa 0,0 l/m 5,2 km/h (1 Bft) 0 min 0,0 km/h (0 Bft)
11.07.2010 23:40 29,1 C 25,5 C 0,0 UV-I 0,0 C 58 % 75 % 0 % 1019,9 hPa 0,0 l/m 5,6 km/h (1 Bft) 0 min 6,1 km/h (2 Bft)
11.07.2010 23:42 29,1 C 25,4 C 0,0 UV-I 0,0 C 58 % 76 % 0 % 1019,9 hPa 0,0 l/m 5,6 km/h (1 Bft) 0 min 7,4 km/h (2 Bft)
11.07.2010 23:44 29,1 C 25,3 C 0,0 UV-I 0,0 C 58 % 76 % 0 % 1019,9 hPa 0,0 l/m 5,2 km/h (1 Bft) 0 min 8,4 km/h (2 Bft)
11.07.2010 23:48 29,1 C 25,3 C 0,0 UV-I 0,0 C 58 % 76 % 0 % 1020,0 hPa 0,0 l/m 6,0 km/h (2 Bft) 0 min 4,5 km/h (1 Bft)
11.07.2010 23:53 29,0 C 25,2 C 0,0 UV-I 0,0 C 58 % 74 % 0 % 1020,0 hPa 0,0 l/m 6,8 km/h (2 Bft) 0 min 7,1 km/h (2 Bft)
11.07.2010 23:56 29,0 C 25,3 C 0,0 UV-I 0,0 C 58 % 72 % 0 % 1020,0 hPa 0,0 l/m 8,4 km/h (2 Bft) 0 min 18,7 km/h (3 Bft)
11.07.2010 23:58 29,0 C 25,3 C 0,0 UV-I 0,0 C 58 % 72 % 0 % 1020,0 hPa 0,0 l/m 10,0 km/h (2 Bft) 0 min 18,3 km/h (3 Bft)
_ Min-Zeit 07:38 05:53 00:00 00:00 17:40 17:58 00:00 06:08 - 02:54 - 01:08
Minimum _ 27,0 C 20,5 C 0,0 UV-I 0,0 C 48 % 39 % 0 % 1017,9 hPa - 0,0 km/h (0 Bft) - 0,0 km/h (0 Bft)
_ Max-Zeit 17:58 17:38 10:50 10:30 09:40 06:13 08:30 16:50 01:34 00:00 08:26 00:30
Maximum _ 32,4 C 34,6 C 13,7 UV-I 6,1 C 65 % 93 % 100 % 1022,2 hPa 1,0 l/m 11,6 km/h
W (2 Bft)
2 min 27,4 km/h
N-NO (4 Bft)
Durchschnitt _ 28,9 C 26,9 C 4,2 UV-I 2,0 C 58 % 70 % 43 % 1020,0 hPa #4,8 l/m 3,5 km/h (1 Bft) #8:21 h 4,5 km/h (1 Bft)
© 2012 W. Hausmann